<?xml version="1.0" encoding="UTF-8" standalone="no" ?>
<gpx xmlns="http://www.topografix.com/GPX/1/1" xmlns:xsi="http://www.w3.org/2001/XMLSchema-instance" xsi:schemaLocation="http://www.topografix.com/GPX/1/1 http://www.topografix.com/GPX/1/1/gpx.xsd" version="1.1" creator="VisuGPX - https://www.visugpx.com">
  <metadata>
    <name>Champsaur J3 bis</name>
    <desc><![CDATA[grp_trc:]]></desc>
  </metadata>
  <trk>
    <name><![CDATA[champsaur bis]]></name>
    <cmt><![CDATA[09:51:42]]></cmt>
    <desc><![CDATA[comment ...]]></desc>
    <trkseg>
      <trkpt lat="44.62178" lon="6.19878">
        <ele>1323.6</ele>
        <time>2023-04-14T07:51:42Z</time>
      </trkpt>
      <trkpt lat="44.62178" lon="6.19878">
        <ele>1323.6</ele>
        <time>2023-04-14T07:51:42Z</time>
      </trkpt>
      <trkpt lat="44.62171" lon="6.19876">
        <ele>1323.5</ele>
        <time>2023-04-14T07:51:42Z</time>
      </trkpt>
      <trkpt lat="44.62304" lon="6.19183">
        <ele>1313</ele>
        <time>2023-04-14T07:51:42Z</time>
      </trkpt>
      <trkpt lat="44.62304" lon="6.19183">
        <ele>1313</ele>
        <time>2023-04-14T07:51:42Z</time>
      </trkpt>
      <trkpt lat="44.62306" lon="6.19171">
        <ele>1313</ele>
        <time>2023-04-14T07:51:42Z</time>
      </trkpt>
      <trkpt lat="44.62138" lon="6.19105">
        <ele>1308.8</ele>
        <time>2023-04-14T07:51:42Z</time>
      </trkpt>
      <trkpt lat="44.62132" lon="6.19095">
        <ele>1307.5</ele>
        <time>2023-04-14T07:51:42Z</time>
      </trkpt>
      <trkpt lat="44.6213" lon="6.19083">
        <ele>1307.6</ele>
        <time>2023-04-14T07:51:42Z</time>
      </trkpt>
      <trkpt lat="44.62132" lon="6.19046">
        <ele>1308.5</ele>
        <time>2023-04-14T07:51:42Z</time>
      </trkpt>
      <trkpt lat="44.62128" lon="6.18999">
        <ele>1306.6</ele>
        <time>2023-04-14T07:51:42Z</time>
      </trkpt>
      <trkpt lat="44.62135" lon="6.18913">
        <ele>1306.8</ele>
        <time>2023-04-14T07:51:42Z</time>
      </trkpt>
      <trkpt lat="44.62149" lon="6.18828">
        <ele>1305.9</ele>
        <time>2023-04-14T07:51:42Z</time>
      </trkpt>
      <trkpt lat="44.62148" lon="6.18782">
        <ele>1304.4</ele>
        <time>2023-04-14T07:51:42Z</time>
      </trkpt>
      <trkpt lat="44.6214" lon="6.18732">
        <ele>1303.1</ele>
        <time>2023-04-14T07:51:42Z</time>
      </trkpt>
      <trkpt lat="44.62139" lon="6.18682">
        <ele>1300.5</ele>
        <time>2023-04-14T07:51:42Z</time>
      </trkpt>
      <trkpt lat="44.62136" lon="6.18671">
        <ele>1299.7</ele>
        <time>2023-04-14T07:51:42Z</time>
      </trkpt>
      <trkpt lat="44.62133" lon="6.18633">
        <ele>1297.9</ele>
        <time>2023-04-14T07:51:42Z</time>
      </trkpt>
      <trkpt lat="44.62181" lon="6.18338">
        <ele>1295.2</ele>
        <time>2023-04-14T07:51:42Z</time>
      </trkpt>
      <trkpt lat="44.62182" lon="6.18308">
        <ele>1295.2</ele>
        <time>2023-04-14T07:51:42Z</time>
      </trkpt>
      <trkpt lat="44.62207" lon="6.18177">
        <ele>1294.9</ele>
        <time>2023-04-14T07:51:42Z</time>
      </trkpt>
      <trkpt lat="44.62259" lon="6.18056">
        <ele>1291</ele>
        <time>2023-04-14T07:51:42Z</time>
      </trkpt>
      <trkpt lat="44.62323" lon="6.17971">
        <ele>1281.9</ele>
        <time>2023-04-14T07:51:42Z</time>
      </trkpt>
      <trkpt lat="44.62327" lon="6.17956">
        <ele>1280.7</ele>
        <time>2023-04-14T07:51:42Z</time>
      </trkpt>
      <trkpt lat="44.62328" lon="6.17818">
        <ele>1283.1</ele>
        <time>2023-04-14T07:51:42Z</time>
      </trkpt>
      <trkpt lat="44.62328" lon="6.17818">
        <ele>1283.1</ele>
        <time>2023-04-14T07:51:42Z</time>
      </trkpt>
      <trkpt lat="44.62141" lon="6.17763">
        <ele>1272.2</ele>
        <time>2023-04-14T07:51:42Z</time>
      </trkpt>
      <trkpt lat="44.62132" lon="6.17756">
        <ele>1274</ele>
        <time>2023-04-14T07:51:42Z</time>
      </trkpt>
      <trkpt lat="44.62125" lon="6.17745">
        <ele>1275.2</ele>
        <time>2023-04-14T07:51:42Z</time>
      </trkpt>
      <trkpt lat="44.62114" lon="6.17719">
        <ele>1277.7</ele>
        <time>2023-04-14T07:51:42Z</time>
      </trkpt>
      <trkpt lat="44.62106" lon="6.17707">
        <ele>1279.1</ele>
        <time>2023-04-14T07:51:42Z</time>
      </trkpt>
      <trkpt lat="44.62097" lon="6.17699">
        <ele>1280.4</ele>
        <time>2023-04-14T07:51:42Z</time>
      </trkpt>
      <trkpt lat="44.61856" lon="6.17613">
        <ele>1302.2</ele>
        <time>2023-04-14T07:51:42Z</time>
      </trkpt>
      <trkpt lat="44.61838" lon="6.17664">
        <ele>1300.7</ele>
        <time>2023-04-14T07:51:42Z</time>
      </trkpt>
      <trkpt lat="44.61577" lon="6.17703">
        <ele>1320.3</ele>
        <time>2023-04-14T07:51:42Z</time>
      </trkpt>
      <trkpt lat="44.61531" lon="6.17725">
        <ele>1324.6</ele>
        <time>2023-04-14T07:51:42Z</time>
      </trkpt>
      <trkpt lat="44.61514" lon="6.17724">
        <ele>1327.4</ele>
        <time>2023-04-14T07:51:42Z</time>
      </trkpt>
      <trkpt lat="44.61427" lon="6.1786">
        <ele>1340.6</ele>
        <time>2023-04-14T07:51:42Z</time>
      </trkpt>
      <trkpt lat="44.6141" lon="6.17871">
        <ele>1341.4</ele>
        <time>2023-04-14T07:51:42Z</time>
      </trkpt>
      <trkpt lat="44.61369" lon="6.17877">
        <ele>1343.7</ele>
        <time>2023-04-14T07:51:42Z</time>
      </trkpt>
      <trkpt lat="44.61219" lon="6.17839">
        <ele>1349.7</ele>
        <time>2023-04-14T07:51:42Z</time>
      </trkpt>
      <trkpt lat="44.61219" lon="6.17839">
        <ele>1349.7</ele>
        <time>2023-04-14T07:51:42Z</time>
      </trkpt>
      <trkpt lat="44.61164" lon="6.17824">
        <ele>1352.2</ele>
        <time>2023-04-14T07:51:42Z</time>
      </trkpt>
      <trkpt lat="44.61109" lon="6.17791">
        <ele>1357.6</ele>
        <time>2023-04-14T07:51:42Z</time>
      </trkpt>
      <trkpt lat="44.60987" lon="6.17754">
        <ele>1372.2</ele>
        <time>2023-04-14T07:51:42Z</time>
      </trkpt>
      <trkpt lat="44.60965" lon="6.17742">
        <ele>1377</ele>
        <time>2023-04-14T07:51:42Z</time>
      </trkpt>
      <trkpt lat="44.60917" lon="6.1773">
        <ele>1383.9</ele>
        <time>2023-04-14T07:51:42Z</time>
      </trkpt>
      <trkpt lat="44.60897" lon="6.1773">
        <ele>1385.2</ele>
        <time>2023-04-14T07:51:42Z</time>
      </trkpt>
      <trkpt lat="44.60839" lon="6.17713">
        <ele>1391.6</ele>
        <time>2023-04-14T07:51:42Z</time>
      </trkpt>
      <trkpt lat="44.60798" lon="6.17682">
        <ele>1402.2</ele>
        <time>2023-04-14T07:51:42Z</time>
      </trkpt>
      <trkpt lat="44.60777" lon="6.17676">
        <ele>1405.1</ele>
        <time>2023-04-14T07:51:42Z</time>
      </trkpt>
      <trkpt lat="44.60709" lon="6.17676">
        <ele>1410.4</ele>
        <time>2023-04-14T07:51:42Z</time>
      </trkpt>
      <trkpt lat="44.607" lon="6.17672">
        <ele>1411.9</ele>
        <time>2023-04-14T07:51:42Z</time>
      </trkpt>
      <trkpt lat="44.60694" lon="6.17664">
        <ele>1413.4</ele>
        <time>2023-04-14T07:51:42Z</time>
      </trkpt>
      <trkpt lat="44.60692" lon="6.17653">
        <ele>1414.6</ele>
        <time>2023-04-14T07:51:42Z</time>
      </trkpt>
      <trkpt lat="44.60694" lon="6.17631">
        <ele>1416.3</ele>
        <time>2023-04-14T07:51:42Z</time>
      </trkpt>
      <trkpt lat="44.60679" lon="6.17637">
        <ele>1416.6</ele>
        <time>2023-04-14T07:51:42Z</time>
      </trkpt>
      <trkpt lat="44.60653" lon="6.17655">
        <ele>1417.1</ele>
        <time>2023-04-14T07:51:42Z</time>
      </trkpt>
      <trkpt lat="44.60639" lon="6.17656">
        <ele>1418.4</ele>
        <time>2023-04-14T07:51:42Z</time>
      </trkpt>
      <trkpt lat="44.60642" lon="6.17636">
        <ele>1418.9</ele>
        <time>2023-04-14T07:51:42Z</time>
      </trkpt>
      <trkpt lat="44.60638" lon="6.176">
        <ele>1420.1</ele>
        <time>2023-04-14T07:51:42Z</time>
      </trkpt>
      <trkpt lat="44.60578" lon="6.17503">
        <ele>1426.4</ele>
        <time>2023-04-14T07:51:42Z</time>
      </trkpt>
      <trkpt lat="44.60569" lon="6.17494">
        <ele>1426.9</ele>
        <time>2023-04-14T07:51:42Z</time>
      </trkpt>
      <trkpt lat="44.60562" lon="6.17473">
        <ele>1426.8</ele>
        <time>2023-04-14T07:51:42Z</time>
      </trkpt>
      <trkpt lat="44.60556" lon="6.17462">
        <ele>1427</ele>
        <time>2023-04-14T07:51:42Z</time>
      </trkpt>
      <trkpt lat="44.60556" lon="6.17462">
        <ele>1427</ele>
        <time>2023-04-14T07:51:42Z</time>
      </trkpt>
      <trkpt lat="44.6055" lon="6.17452">
        <ele>1426.8</ele>
        <time>2023-04-14T07:51:42Z</time>
      </trkpt>
      <trkpt lat="44.60471" lon="6.17604">
        <ele>1431.3</ele>
        <time>2023-04-14T07:51:42Z</time>
      </trkpt>
      <trkpt lat="44.6047" lon="6.17619">
        <ele>1431.9</ele>
        <time>2023-04-14T07:51:42Z</time>
      </trkpt>
      <trkpt lat="44.60452" lon="6.17679">
        <ele>1434</ele>
        <time>2023-04-14T07:51:42Z</time>
      </trkpt>
      <trkpt lat="44.60449" lon="6.17712">
        <ele>1435.5</ele>
        <time>2023-04-14T07:51:42Z</time>
      </trkpt>
      <trkpt lat="44.60437" lon="6.17758">
        <ele>1437.4</ele>
        <time>2023-04-14T07:51:42Z</time>
      </trkpt>
      <trkpt lat="44.60435" lon="6.17792">
        <ele>1438.9</ele>
        <time>2023-04-14T07:51:42Z</time>
      </trkpt>
      <trkpt lat="44.60436" lon="6.17829">
        <ele>1441</ele>
        <time>2023-04-14T07:51:42Z</time>
      </trkpt>
      <trkpt lat="44.6039" lon="6.17856">
        <ele>1442.5</ele>
        <time>2023-04-14T07:51:42Z</time>
      </trkpt>
      <trkpt lat="44.60369" lon="6.17874">
        <ele>1440.7</ele>
        <time>2023-04-14T07:51:42Z</time>
      </trkpt>
      <trkpt lat="44.60361" lon="6.17887">
        <ele>1440.8</ele>
        <time>2023-04-14T07:51:42Z</time>
      </trkpt>
      <trkpt lat="44.6035" lon="6.17898">
        <ele>1441.1</ele>
        <time>2023-04-14T07:51:42Z</time>
      </trkpt>
      <trkpt lat="44.60264" lon="6.1796">
        <ele>1447.2</ele>
        <time>2023-04-14T07:51:42Z</time>
      </trkpt>
      <trkpt lat="44.60227" lon="6.18001">
        <ele>1448.5</ele>
        <time>2023-04-14T07:51:42Z</time>
      </trkpt>
      <trkpt lat="44.60225" lon="6.18012">
        <ele>1447.9</ele>
        <time>2023-04-14T07:51:42Z</time>
      </trkpt>
      <trkpt lat="44.60224" lon="6.18026">
        <ele>1447.3</ele>
        <time>2023-04-14T07:51:42Z</time>
      </trkpt>
      <trkpt lat="44.60219" lon="6.18033">
        <ele>1445.8</ele>
        <time>2023-04-14T07:51:42Z</time>
      </trkpt>
      <trkpt lat="44.60209" lon="6.18041">
        <ele>1443.1</ele>
        <time>2023-04-14T07:51:42Z</time>
      </trkpt>
      <trkpt lat="44.6018" lon="6.1804">
        <ele>1437.9</ele>
        <time>2023-04-14T07:51:42Z</time>
      </trkpt>
      <trkpt lat="44.60149" lon="6.18034">
        <ele>1433.4</ele>
        <time>2023-04-14T07:51:42Z</time>
      </trkpt>
      <trkpt lat="44.60121" lon="6.18035">
        <ele>1430.5</ele>
        <time>2023-04-14T07:51:42Z</time>
      </trkpt>
      <trkpt lat="44.60113" lon="6.18038">
        <ele>1429.9</ele>
        <time>2023-04-14T07:51:42Z</time>
      </trkpt>
      <trkpt lat="44.60076" lon="6.18033">
        <ele>1425.8</ele>
        <time>2023-04-14T07:51:42Z</time>
      </trkpt>
      <trkpt lat="44.60076" lon="6.18033">
        <ele>1425.8</ele>
        <time>2023-04-14T07:51:42Z</time>
      </trkpt>
      <trkpt lat="44.60068" lon="6.18057">
        <ele>1427.1</ele>
        <time>2023-04-14T07:51:42Z</time>
      </trkpt>
      <trkpt lat="44.60059" lon="6.18062">
        <ele>1426.9</ele>
        <time>2023-04-14T07:51:42Z</time>
      </trkpt>
      <trkpt lat="44.60051" lon="6.18058">
        <ele>1426.2</ele>
        <time>2023-04-14T07:51:42Z</time>
      </trkpt>
      <trkpt lat="44.60029" lon="6.18037">
        <ele>1424</ele>
        <time>2023-04-14T07:51:42Z</time>
      </trkpt>
      <trkpt lat="44.60018" lon="6.18023">
        <ele>1422.6</ele>
        <time>2023-04-14T07:51:42Z</time>
      </trkpt>
      <trkpt lat="44.60016" lon="6.18012">
        <ele>1421.8</ele>
        <time>2023-04-14T07:51:42Z</time>
      </trkpt>
      <trkpt lat="44.60011" lon="6.18003">
        <ele>1421.2</ele>
        <time>2023-04-14T07:51:42Z</time>
      </trkpt>
      <trkpt lat="44.60004" lon="6.17999">
        <ele>1420.8</ele>
        <time>2023-04-14T07:51:42Z</time>
      </trkpt>
      <trkpt lat="44.59954" lon="6.17995">
        <ele>1417.1</ele>
        <time>2023-04-14T07:51:42Z</time>
      </trkpt>
      <trkpt lat="44.59947" lon="6.17991">
        <ele>1415.9</ele>
        <time>2023-04-14T07:51:42Z</time>
      </trkpt>
      <trkpt lat="44.59923" lon="6.17963">
        <ele>1411.2</ele>
        <time>2023-04-14T07:51:42Z</time>
      </trkpt>
      <trkpt lat="44.59917" lon="6.17953">
        <ele>1409.9</ele>
        <time>2023-04-14T07:51:42Z</time>
      </trkpt>
      <trkpt lat="44.59917" lon="6.17938">
        <ele>1408.3</ele>
        <time>2023-04-14T07:51:42Z</time>
      </trkpt>
      <trkpt lat="44.59948" lon="6.17913">
        <ele>1406.8</ele>
        <time>2023-04-14T07:51:42Z</time>
      </trkpt>
      <trkpt lat="44.59992" lon="6.17892">
        <ele>1407.7</ele>
        <time>2023-04-14T07:51:42Z</time>
      </trkpt>
      <trkpt lat="44.59997" lon="6.17874">
        <ele>1407.7</ele>
        <time>2023-04-14T07:51:42Z</time>
      </trkpt>
      <trkpt lat="44.59997" lon="6.17792">
        <ele>1407.2</ele>
        <time>2023-04-14T07:51:42Z</time>
      </trkpt>
      <trkpt lat="44.60001" lon="6.17772">
        <ele>1408</ele>
        <time>2023-04-14T07:51:42Z</time>
      </trkpt>
      <trkpt lat="44.60004" lon="6.17763">
        <ele>1408.1</ele>
        <time>2023-04-14T07:51:42Z</time>
      </trkpt>
      <trkpt lat="44.5997" lon="6.17723">
        <ele>1404.6</ele>
        <time>2023-04-14T07:51:42Z</time>
      </trkpt>
      <trkpt lat="44.59964" lon="6.17711">
        <ele>1402.9</ele>
        <time>2023-04-14T07:51:42Z</time>
      </trkpt>
      <trkpt lat="44.59963" lon="6.17698">
        <ele>1401.9</ele>
        <time>2023-04-14T07:51:42Z</time>
      </trkpt>
      <trkpt lat="44.59963" lon="6.17698">
        <ele>1401.9</ele>
        <time>2023-04-14T07:51:42Z</time>
      </trkpt>
      <trkpt lat="44.59967" lon="6.17682">
        <ele>1401.1</ele>
        <time>2023-04-14T07:51:42Z</time>
      </trkpt>
      <trkpt lat="44.60001" lon="6.1765">
        <ele>1398.5</ele>
        <time>2023-04-14T07:51:42Z</time>
      </trkpt>
      <trkpt lat="44.6001" lon="6.17644">
        <ele>1397.6</ele>
        <time>2023-04-14T07:51:42Z</time>
      </trkpt>
      <trkpt lat="44.60018" lon="6.17643">
        <ele>1397.1</ele>
        <time>2023-04-14T07:51:42Z</time>
      </trkpt>
      <trkpt lat="44.60053" lon="6.17652">
        <ele>1397.4</ele>
        <time>2023-04-14T07:51:42Z</time>
      </trkpt>
      <trkpt lat="44.6006" lon="6.17647">
        <ele>1397.1</ele>
        <time>2023-04-14T07:51:42Z</time>
      </trkpt>
      <trkpt lat="44.60065" lon="6.17631">
        <ele>1396.4</ele>
        <time>2023-04-14T07:51:42Z</time>
      </trkpt>
      <trkpt lat="44.60061" lon="6.17605">
        <ele>1394.4</ele>
        <time>2023-04-14T07:51:42Z</time>
      </trkpt>
      <trkpt lat="44.60056" lon="6.1759">
        <ele>1392.3</ele>
        <time>2023-04-14T07:51:42Z</time>
      </trkpt>
      <trkpt lat="44.60064" lon="6.1756">
        <ele>1392</ele>
        <time>2023-04-14T07:51:42Z</time>
      </trkpt>
      <trkpt lat="44.60088" lon="6.17506">
        <ele>1389.3</ele>
        <time>2023-04-14T07:51:42Z</time>
      </trkpt>
      <trkpt lat="44.60094" lon="6.17486">
        <ele>1388</ele>
        <time>2023-04-14T07:51:42Z</time>
      </trkpt>
      <trkpt lat="44.60103" lon="6.17468">
        <ele>1387.3</ele>
        <time>2023-04-14T07:51:42Z</time>
      </trkpt>
      <trkpt lat="44.60133" lon="6.1744">
        <ele>1386.1</ele>
        <time>2023-04-14T07:51:42Z</time>
      </trkpt>
      <trkpt lat="44.60196" lon="6.17345">
        <ele>1380.4</ele>
        <time>2023-04-14T07:51:42Z</time>
      </trkpt>
      <trkpt lat="44.60232" lon="6.17256">
        <ele>1375.6</ele>
        <time>2023-04-14T07:51:42Z</time>
      </trkpt>
      <trkpt lat="44.60232" lon="6.17256">
        <ele>1375.6</ele>
        <time>2023-04-14T07:51:42Z</time>
      </trkpt>
      <trkpt lat="44.60234" lon="6.17246">
        <ele>1374.9</ele>
        <time>2023-04-14T07:51:42Z</time>
      </trkpt>
      <trkpt lat="44.6018" lon="6.17181">
        <ele>1368</ele>
        <time>2023-04-14T07:51:42Z</time>
      </trkpt>
      <trkpt lat="44.60173" lon="6.17157">
        <ele>1366.7</ele>
        <time>2023-04-14T07:51:42Z</time>
      </trkpt>
      <trkpt lat="44.6017" lon="6.17131">
        <ele>1365.2</ele>
        <time>2023-04-14T07:51:42Z</time>
      </trkpt>
      <trkpt lat="44.601" lon="6.16997">
        <ele>1354.3</ele>
        <time>2023-04-14T07:51:42Z</time>
      </trkpt>
      <trkpt lat="44.6005" lon="6.16813">
        <ele>1354.1</ele>
        <time>2023-04-14T07:51:42Z</time>
      </trkpt>
      <trkpt lat="44.5996" lon="6.16604">
        <ele>1355.2</ele>
        <time>2023-04-14T07:51:42Z</time>
      </trkpt>
      <trkpt lat="44.59882" lon="6.16178">
        <ele>1346.9</ele>
        <time>2023-04-14T07:51:42Z</time>
      </trkpt>
      <trkpt lat="44.59867" lon="6.16136">
        <ele>1345.5</ele>
        <time>2023-04-14T07:51:42Z</time>
      </trkpt>
      <trkpt lat="44.59869" lon="6.16111">
        <ele>1343</ele>
        <time>2023-04-14T07:51:42Z</time>
      </trkpt>
      <trkpt lat="44.5985" lon="6.16058">
        <ele>1337.5</ele>
        <time>2023-04-14T07:51:42Z</time>
      </trkpt>
      <trkpt lat="44.59801" lon="6.15986">
        <ele>1326.2</ele>
        <time>2023-04-14T07:51:42Z</time>
      </trkpt>
      <trkpt lat="44.59762" lon="6.15913">
        <ele>1312.5</ele>
        <time>2023-04-14T07:51:42Z</time>
      </trkpt>
      <trkpt lat="44.59658" lon="6.15822">
        <ele>1284.5</ele>
        <time>2023-04-14T07:51:42Z</time>
      </trkpt>
      <trkpt lat="44.59643" lon="6.15749">
        <ele>1288.3</ele>
        <time>2023-04-14T07:51:42Z</time>
      </trkpt>
      <trkpt lat="44.59569" lon="6.15664">
        <ele>1238</ele>
        <time>2023-04-14T07:51:42Z</time>
      </trkpt>
      <trkpt lat="44.59569" lon="6.15664">
        <ele>1238</ele>
        <time>2023-04-14T07:51:42Z</time>
      </trkpt>
      <trkpt lat="44.59535" lon="6.15508">
        <ele>1225.2</ele>
        <time>2023-04-14T07:51:42Z</time>
      </trkpt>
      <trkpt lat="44.59539" lon="6.15453">
        <ele>1223.5</ele>
        <time>2023-04-14T07:51:42Z</time>
      </trkpt>
      <trkpt lat="44.59539" lon="6.15453">
        <ele>1223.5</ele>
        <time>2023-04-14T07:51:42Z</time>
      </trkpt>
      <trkpt lat="44.59535" lon="6.15443">
        <ele>1221.9</ele>
        <time>2023-04-14T07:51:42Z</time>
      </trkpt>
      <trkpt lat="44.59526" lon="6.15448">
        <ele>1218.4</ele>
        <time>2023-04-14T07:51:42Z</time>
      </trkpt>
      <trkpt lat="44.59475" lon="6.15544">
        <ele>1212.7</ele>
        <time>2023-04-14T07:51:42Z</time>
      </trkpt>
      <trkpt lat="44.59468" lon="6.15547">
        <ele>1211</ele>
        <time>2023-04-14T07:51:42Z</time>
      </trkpt>
      <trkpt lat="44.5947" lon="6.15519">
        <ele>1208.3</ele>
        <time>2023-04-14T07:51:42Z</time>
      </trkpt>
      <trkpt lat="44.59475" lon="6.15505">
        <ele>1207.6</ele>
        <time>2023-04-14T07:51:42Z</time>
      </trkpt>
      <trkpt lat="44.59475" lon="6.15505">
        <ele>1207.6</ele>
        <time>2023-04-14T07:51:42Z</time>
      </trkpt>
      <trkpt lat="44.59507" lon="6.15353">
        <ele>1192.7</ele>
        <time>2023-04-14T07:51:42Z</time>
      </trkpt>
      <trkpt lat="44.59509" lon="6.1532">
        <ele>1190.9</ele>
        <time>2023-04-14T07:51:42Z</time>
      </trkpt>
      <trkpt lat="44.595" lon="6.15275">
        <ele>1188.8</ele>
        <time>2023-04-14T07:51:42Z</time>
      </trkpt>
      <trkpt lat="44.595" lon="6.15255">
        <ele>1187.5</ele>
        <time>2023-04-14T07:51:42Z</time>
      </trkpt>
      <trkpt lat="44.59521" lon="6.15177">
        <ele>1181.7</ele>
        <time>2023-04-14T07:51:42Z</time>
      </trkpt>
      <trkpt lat="44.59561" lon="6.15106">
        <ele>1175.6</ele>
        <time>2023-04-14T07:51:42Z</time>
      </trkpt>
      <trkpt lat="44.59571" lon="6.15094">
        <ele>1174.7</ele>
        <time>2023-04-14T07:51:42Z</time>
      </trkpt>
      <trkpt lat="44.59572" lon="6.15079">
        <ele>1172.7</ele>
        <time>2023-04-14T07:51:42Z</time>
      </trkpt>
      <trkpt lat="44.59563" lon="6.15087">
        <ele>1172.6</ele>
        <time>2023-04-14T07:51:42Z</time>
      </trkpt>
      <trkpt lat="44.59566" lon="6.15074">
        <ele>1170.6</ele>
        <time>2023-04-14T07:51:42Z</time>
      </trkpt>
      <trkpt lat="44.59586" lon="6.15027">
        <ele>1167.7</ele>
        <time>2023-04-14T07:51:42Z</time>
      </trkpt>
      <trkpt lat="44.59549" lon="6.15046">
        <ele>1161.8</ele>
        <time>2023-04-14T07:51:42Z</time>
      </trkpt>
      <trkpt lat="44.59553" lon="6.15022">
        <ele>1159.1</ele>
        <time>2023-04-14T07:51:42Z</time>
      </trkpt>
      <trkpt lat="44.59522" lon="6.15001">
        <ele>1157</ele>
        <time>2023-04-14T07:51:42Z</time>
      </trkpt>
      <trkpt lat="44.59516" lon="6.14993">
        <ele>1156.7</ele>
        <time>2023-04-14T07:51:42Z</time>
      </trkpt>
      <trkpt lat="44.59514" lon="6.14949">
        <ele>1155.6</ele>
        <time>2023-04-14T07:51:42Z</time>
      </trkpt>
      <trkpt lat="44.59505" lon="6.14906">
        <ele>1155</ele>
        <time>2023-04-14T07:51:42Z</time>
      </trkpt>
      <trkpt lat="44.59505" lon="6.14894">
        <ele>1155</ele>
        <time>2023-04-14T07:51:42Z</time>
      </trkpt>
      <trkpt lat="44.59511" lon="6.14877">
        <ele>1154.8</ele>
        <time>2023-04-14T07:51:42Z</time>
      </trkpt>
      <trkpt lat="44.59526" lon="6.14857">
        <ele>1155</ele>
        <time>2023-04-14T07:51:42Z</time>
      </trkpt>
      <trkpt lat="44.59526" lon="6.14857">
        <ele>1155</ele>
        <time>2023-04-14T07:51:42Z</time>
      </trkpt>
      <trkpt lat="44.59551" lon="6.14811">
        <ele>1155</ele>
        <time>2023-04-14T07:51:42Z</time>
      </trkpt>
      <trkpt lat="44.59591" lon="6.14664">
        <ele>1152.6</ele>
        <time>2023-04-14T07:51:42Z</time>
      </trkpt>
      <trkpt lat="44.59593" lon="6.14596">
        <ele>1150.6</ele>
        <time>2023-04-14T07:51:42Z</time>
      </trkpt>
      <trkpt lat="44.59595" lon="6.14584">
        <ele>1150.4</ele>
        <time>2023-04-14T07:51:42Z</time>
      </trkpt>
      <trkpt lat="44.59601" lon="6.1457">
        <ele>1150.2</ele>
        <time>2023-04-14T07:51:42Z</time>
      </trkpt>
      <trkpt lat="44.59606" lon="6.14488">
        <ele>1149.5</ele>
        <time>2023-04-14T07:51:42Z</time>
      </trkpt>
      <trkpt lat="44.59601" lon="6.14469">
        <ele>1147.8</ele>
        <time>2023-04-14T07:51:42Z</time>
      </trkpt>
      <trkpt lat="44.59562" lon="6.14417">
        <ele>1143.5</ele>
        <time>2023-04-14T07:51:42Z</time>
      </trkpt>
      <trkpt lat="44.59562" lon="6.14401">
        <ele>1142</ele>
        <time>2023-04-14T07:51:42Z</time>
      </trkpt>
      <trkpt lat="44.59593" lon="6.14277">
        <ele>1139.4</ele>
        <time>2023-04-14T07:51:42Z</time>
      </trkpt>
      <trkpt lat="44.59594" lon="6.14265">
        <ele>1138.5</ele>
        <time>2023-04-14T07:51:42Z</time>
      </trkpt>
      <trkpt lat="44.59594" lon="6.14265">
        <ele>1138.5</ele>
        <time>2023-04-14T07:51:42Z</time>
      </trkpt>
      <trkpt lat="44.59593" lon="6.14277">
        <ele>1139.4</ele>
        <time>2023-04-14T07:51:42Z</time>
      </trkpt>
      <trkpt lat="44.59607" lon="6.1428">
        <ele>1141.5</ele>
        <time>2023-04-14T07:51:42Z</time>
      </trkpt>
      <trkpt lat="44.59689" lon="6.14082">
        <ele>1141.9</ele>
        <time>2023-04-14T07:51:42Z</time>
      </trkpt>
      <trkpt lat="44.59696" lon="6.14073">
        <ele>1140.7</ele>
        <time>2023-04-14T07:51:42Z</time>
      </trkpt>
      <trkpt lat="44.59711" lon="6.14077">
        <ele>1136.9</ele>
        <time>2023-04-14T07:51:42Z</time>
      </trkpt>
      <trkpt lat="44.59735" lon="6.14103">
        <ele>1134.5</ele>
        <time>2023-04-14T07:51:42Z</time>
      </trkpt>
      <trkpt lat="44.59766" lon="6.14157">
        <ele>1138.5</ele>
        <time>2023-04-14T07:51:42Z</time>
      </trkpt>
      <trkpt lat="44.5977" lon="6.14172">
        <ele>1139.7</ele>
        <time>2023-04-14T07:51:42Z</time>
      </trkpt>
      <trkpt lat="44.59777" lon="6.14183">
        <ele>1140.6</ele>
        <time>2023-04-14T07:51:42Z</time>
      </trkpt>
      <trkpt lat="44.59798" lon="6.1411">
        <ele>1143</ele>
        <time>2023-04-14T07:51:42Z</time>
      </trkpt>
      <trkpt lat="44.59826" lon="6.14037">
        <ele>1142.2</ele>
        <time>2023-04-14T07:51:42Z</time>
      </trkpt>
      <trkpt lat="44.59835" lon="6.13964">
        <ele>1140.5</ele>
        <time>2023-04-14T07:51:42Z</time>
      </trkpt>
      <trkpt lat="44.59765" lon="6.13887">
        <ele>1143.6</ele>
        <time>2023-04-14T07:51:42Z</time>
      </trkpt>
      <trkpt lat="44.59765" lon="6.13887">
        <ele>1143.6</ele>
        <time>2023-04-14T07:51:42Z</time>
      </trkpt>
      <trkpt lat="44.59772" lon="6.13842">
        <ele>1142.6</ele>
        <time>2023-04-14T07:51:42Z</time>
      </trkpt>
      <trkpt lat="44.59773" lon="6.13826">
        <ele>1142.2</ele>
        <time>2023-04-14T07:51:42Z</time>
      </trkpt>
      <trkpt lat="44.59771" lon="6.1381">
        <ele>1142.1</ele>
        <time>2023-04-14T07:51:42Z</time>
      </trkpt>
      <trkpt lat="44.59772" lon="6.13798">
        <ele>1142.1</ele>
        <time>2023-04-14T07:51:42Z</time>
      </trkpt>
      <trkpt lat="44.59882" lon="6.13463">
        <ele>1142.8</ele>
        <time>2023-04-14T07:51:42Z</time>
      </trkpt>
      <trkpt lat="44.59901" lon="6.13362">
        <ele>1142.4</ele>
        <time>2023-04-14T07:51:42Z</time>
      </trkpt>
      <trkpt lat="44.59962" lon="6.13111">
        <ele>1142.1</ele>
        <time>2023-04-14T07:51:42Z</time>
      </trkpt>
      <trkpt lat="44.59983" lon="6.13063">
        <ele>1142.6</ele>
        <time>2023-04-14T07:51:42Z</time>
      </trkpt>
      <trkpt lat="44.60009" lon="6.12941">
        <ele>1140.4</ele>
        <time>2023-04-14T07:51:42Z</time>
      </trkpt>
      <trkpt lat="44.60013" lon="6.12931">
        <ele>1141</ele>
        <time>2023-04-14T07:51:42Z</time>
      </trkpt>
      <trkpt lat="44.60021" lon="6.12872">
        <ele>1138.2</ele>
        <time>2023-04-14T07:51:42Z</time>
      </trkpt>
      <trkpt lat="44.60027" lon="6.12855">
        <ele>1138.7</ele>
        <time>2023-04-14T07:51:42Z</time>
      </trkpt>
      <trkpt lat="44.6004" lon="6.12834">
        <ele>1138.4</ele>
        <time>2023-04-14T07:51:42Z</time>
      </trkpt>
      <trkpt lat="44.60048" lon="6.12811">
        <ele>1138.3</ele>
        <time>2023-04-14T07:51:42Z</time>
      </trkpt>
      <trkpt lat="44.60049" lon="6.12798">
        <ele>1138.3</ele>
        <time>2023-04-14T07:51:42Z</time>
      </trkpt>
      <trkpt lat="44.60048" lon="6.1278">
        <ele>1137.9</ele>
        <time>2023-04-14T07:51:42Z</time>
      </trkpt>
      <trkpt lat="44.60043" lon="6.12767">
        <ele>1137.2</ele>
        <time>2023-04-14T07:51:42Z</time>
      </trkpt>
      <trkpt lat="44.60043" lon="6.12767">
        <ele>1137.2</ele>
        <time>2023-04-14T07:51:42Z</time>
      </trkpt>
      <trkpt lat="44.60044" lon="6.12755">
        <ele>1137.4</ele>
        <time>2023-04-14T07:51:42Z</time>
      </trkpt>
      <trkpt lat="44.60051" lon="6.12729">
        <ele>1137.4</ele>
        <time>2023-04-14T07:51:42Z</time>
      </trkpt>
      <trkpt lat="44.60083" lon="6.12475">
        <ele>1137</ele>
        <time>2023-04-14T07:51:42Z</time>
      </trkpt>
      <trkpt lat="44.60105" lon="6.12409">
        <ele>1137.9</ele>
        <time>2023-04-14T07:51:42Z</time>
      </trkpt>
      <trkpt lat="44.60127" lon="6.12394">
        <ele>1138.1</ele>
        <time>2023-04-14T07:51:42Z</time>
      </trkpt>
      <trkpt lat="44.60135" lon="6.12384">
        <ele>1136.6</ele>
        <time>2023-04-14T07:51:42Z</time>
      </trkpt>
      <trkpt lat="44.60159" lon="6.12327">
        <ele>1131.6</ele>
        <time>2023-04-14T07:51:42Z</time>
      </trkpt>
      <trkpt lat="44.60188" lon="6.12312">
        <ele>1131.8</ele>
        <time>2023-04-14T07:51:42Z</time>
      </trkpt>
      <trkpt lat="44.6019" lon="6.123">
        <ele>1131.8</ele>
        <time>2023-04-14T07:51:42Z</time>
      </trkpt>
      <trkpt lat="44.6017" lon="6.12243">
        <ele>1130.4</ele>
        <time>2023-04-14T07:51:42Z</time>
      </trkpt>
      <trkpt lat="44.60168" lon="6.12231">
        <ele>1130.2</ele>
        <time>2023-04-14T07:51:42Z</time>
      </trkpt>
      <trkpt lat="44.60172" lon="6.12215">
        <ele>1130.7</ele>
        <time>2023-04-14T07:51:42Z</time>
      </trkpt>
      <trkpt lat="44.60209" lon="6.12185">
        <ele>1134.4</ele>
        <time>2023-04-14T07:51:42Z</time>
      </trkpt>
      <trkpt lat="44.60219" lon="6.12182">
        <ele>1135.2</ele>
        <time>2023-04-14T07:51:42Z</time>
      </trkpt>
      <trkpt lat="44.60237" lon="6.12182">
        <ele>1135.8</ele>
        <time>2023-04-14T07:51:42Z</time>
      </trkpt>
      <trkpt lat="44.60223" lon="6.1217">
        <ele>1135.9</ele>
        <time>2023-04-14T07:51:42Z</time>
      </trkpt>
      <trkpt lat="44.60223" lon="6.1217">
        <ele>1135.9</ele>
        <time>2023-04-14T07:51:42Z</time>
      </trkpt>
      <trkpt lat="44.60237" lon="6.12182">
        <ele>1135.8</ele>
        <time>2023-04-14T07:51:42Z</time>
      </trkpt>
      <trkpt lat="44.60233" lon="6.12169">
        <ele>1135.9</ele>
        <time>2023-04-14T07:51:42Z</time>
      </trkpt>
      <trkpt lat="44.6023" lon="6.12131">
        <ele>1137.3</ele>
        <time>2023-04-14T07:51:42Z</time>
      </trkpt>
      <trkpt lat="44.60235" lon="6.12051">
        <ele>1137.4</ele>
        <time>2023-04-14T07:51:42Z</time>
      </trkpt>
      <trkpt lat="44.60207" lon="6.11993">
        <ele>1137.3</ele>
        <time>2023-04-14T07:51:42Z</time>
      </trkpt>
      <trkpt lat="44.60205" lon="6.11982">
        <ele>1137.8</ele>
        <time>2023-04-14T07:51:42Z</time>
      </trkpt>
      <trkpt lat="44.60209" lon="6.11948">
        <ele>1139.4</ele>
        <time>2023-04-14T07:51:42Z</time>
      </trkpt>
      <trkpt lat="44.60207" lon="6.11901">
        <ele>1139.9</ele>
        <time>2023-04-14T07:51:42Z</time>
      </trkpt>
      <trkpt lat="44.6021" lon="6.11881">
        <ele>1140.3</ele>
        <time>2023-04-14T07:51:42Z</time>
      </trkpt>
      <trkpt lat="44.60171" lon="6.11775">
        <ele>1133.3</ele>
        <time>2023-04-14T07:51:42Z</time>
      </trkpt>
      <trkpt lat="44.60196" lon="6.11642">
        <ele>1141</ele>
        <time>2023-04-14T07:51:42Z</time>
      </trkpt>
      <trkpt lat="44.60196" lon="6.11642">
        <ele>1141</ele>
        <time>2023-04-14T07:51:42Z</time>
      </trkpt>
      <trkpt lat="44.60185" lon="6.11594">
        <ele>1140.1</ele>
        <time>2023-04-14T07:51:42Z</time>
      </trkpt>
      <trkpt lat="44.60185" lon="6.11466">
        <ele>1143.6</ele>
        <time>2023-04-14T07:51:42Z</time>
      </trkpt>
      <trkpt lat="44.60182" lon="6.11454">
        <ele>1143.7</ele>
        <time>2023-04-14T07:51:42Z</time>
      </trkpt>
      <trkpt lat="44.60171" lon="6.11433">
        <ele>1142.7</ele>
        <time>2023-04-14T07:51:42Z</time>
      </trkpt>
      <trkpt lat="44.60167" lon="6.11421">
        <ele>1142.1</ele>
        <time>2023-04-14T07:51:42Z</time>
      </trkpt>
      <trkpt lat="44.60161" lon="6.11346">
        <ele>1143.5</ele>
        <time>2023-04-14T07:51:42Z</time>
      </trkpt>
      <trkpt lat="44.60135" lon="6.11273">
        <ele>1142.1</ele>
        <time>2023-04-14T07:51:42Z</time>
      </trkpt>
      <trkpt lat="44.60126" lon="6.1121">
        <ele>1141.2</ele>
        <time>2023-04-14T07:51:42Z</time>
      </trkpt>
      <trkpt lat="44.60125" lon="6.11196">
        <ele>1140.7</ele>
        <time>2023-04-14T07:51:42Z</time>
      </trkpt>
      <trkpt lat="44.60125" lon="6.11196">
        <ele>1140.7</ele>
        <time>2023-04-14T07:51:42Z</time>
      </trkpt>
      <trkpt lat="44.60129" lon="6.11186">
        <ele>1140.8</ele>
        <time>2023-04-14T07:51:42Z</time>
      </trkpt>
      <trkpt lat="44.60133" lon="6.11178">
        <ele>1141.4</ele>
        <time>2023-04-14T07:51:42Z</time>
      </trkpt>
      <trkpt lat="44.60207" lon="6.11105">
        <ele>1141.1</ele>
        <time>2023-04-14T07:51:42Z</time>
      </trkpt>
      <trkpt lat="44.60217" lon="6.11101">
        <ele>1142.8</ele>
        <time>2023-04-14T07:51:42Z</time>
      </trkpt>
      <trkpt lat="44.60226" lon="6.11101">
        <ele>1144.5</ele>
        <time>2023-04-14T07:51:42Z</time>
      </trkpt>
      <trkpt lat="44.60234" lon="6.11097">
        <ele>1145.4</ele>
        <time>2023-04-14T07:51:42Z</time>
      </trkpt>
      <trkpt lat="44.60242" lon="6.11093">
        <ele>1146.1</ele>
        <time>2023-04-14T07:51:42Z</time>
      </trkpt>
      <trkpt lat="44.6019" lon="6.11076">
        <ele>1138.8</ele>
        <time>2023-04-14T07:51:42Z</time>
      </trkpt>
      <trkpt lat="44.6011" lon="6.11029">
        <ele>1144.8</ele>
        <time>2023-04-14T07:51:42Z</time>
      </trkpt>
      <trkpt lat="44.6011" lon="6.11029">
        <ele>1144.8</ele>
        <time>2023-04-14T07:51:42Z</time>
      </trkpt>
      <trkpt lat="44.60101" lon="6.11035">
        <ele>1142.8</ele>
        <time>2023-04-14T07:51:42Z</time>
      </trkpt>
      <trkpt lat="44.6002" lon="6.1086">
        <ele>1142</ele>
        <time>2023-04-14T07:51:42Z</time>
      </trkpt>
      <trkpt lat="44.6" lon="6.10829">
        <ele>1142.4</ele>
        <time>2023-04-14T07:51:42Z</time>
      </trkpt>
      <trkpt lat="44.59992" lon="6.10821">
        <ele>1142.1</ele>
        <time>2023-04-14T07:51:42Z</time>
      </trkpt>
      <trkpt lat="44.59963" lon="6.10778">
        <ele>1141.7</ele>
        <time>2023-04-14T07:51:42Z</time>
      </trkpt>
      <trkpt lat="44.59915" lon="6.1064">
        <ele>1142.5</ele>
        <time>2023-04-14T07:51:42Z</time>
      </trkpt>
      <trkpt lat="44.59912" lon="6.10614">
        <ele>1141.5</ele>
        <time>2023-04-14T07:51:42Z</time>
      </trkpt>
      <trkpt lat="44.59913" lon="6.10586">
        <ele>1141.7</ele>
        <time>2023-04-14T07:51:42Z</time>
      </trkpt>
      <trkpt lat="44.5992" lon="6.10521">
        <ele>1142.2</ele>
        <time>2023-04-14T07:51:42Z</time>
      </trkpt>
      <trkpt lat="44.59919" lon="6.10454">
        <ele>1141.6</ele>
        <time>2023-04-14T07:51:42Z</time>
      </trkpt>
      <trkpt lat="44.59927" lon="6.10421">
        <ele>1142.2</ele>
        <time>2023-04-14T07:51:42Z</time>
      </trkpt>
      <trkpt lat="44.59929" lon="6.10403">
        <ele>1142.4</ele>
        <time>2023-04-14T07:51:42Z</time>
      </trkpt>
      <trkpt lat="44.5989" lon="6.10218">
        <ele>1143.4</ele>
        <time>2023-04-14T07:51:42Z</time>
      </trkpt>
      <trkpt lat="44.59874" lon="6.10168">
        <ele>1141.9</ele>
        <time>2023-04-14T07:51:42Z</time>
      </trkpt>
      <trkpt lat="44.5987" lon="6.10141">
        <ele>1141.3</ele>
        <time>2023-04-14T07:51:42Z</time>
      </trkpt>
      <trkpt lat="44.59871" lon="6.10127">
        <ele>1140.6</ele>
        <time>2023-04-14T07:51:42Z</time>
      </trkpt>
      <trkpt lat="44.59885" lon="6.10099">
        <ele>1142.1</ele>
        <time>2023-04-14T07:51:42Z</time>
      </trkpt>
      <trkpt lat="44.59887" lon="6.10076">
        <ele>1142</ele>
        <time>2023-04-14T07:51:42Z</time>
      </trkpt>
      <trkpt lat="44.59884" lon="6.10056">
        <ele>1142.6</ele>
        <time>2023-04-14T07:51:42Z</time>
      </trkpt>
      <trkpt lat="44.5988" lon="6.10043">
        <ele>1142.4</ele>
        <time>2023-04-14T07:51:42Z</time>
      </trkpt>
      <trkpt lat="44.59875" lon="6.10032">
        <ele>1142.1</ele>
        <time>2023-04-14T07:51:42Z</time>
      </trkpt>
      <trkpt lat="44.59846" lon="6.10004">
        <ele>1139.9</ele>
        <time>2023-04-14T07:51:42Z</time>
      </trkpt>
      <trkpt lat="44.5984" lon="6.09986">
        <ele>1140.2</ele>
        <time>2023-04-14T07:51:42Z</time>
      </trkpt>
      <trkpt lat="44.59842" lon="6.09928">
        <ele>1141.9</ele>
        <time>2023-04-14T07:51:42Z</time>
      </trkpt>
      <trkpt lat="44.59838" lon="6.09907">
        <ele>1141.9</ele>
        <time>2023-04-14T07:51:42Z</time>
      </trkpt>
      <trkpt lat="44.59832" lon="6.09892">
        <ele>1141.4</ele>
        <time>2023-04-14T07:51:42Z</time>
      </trkpt>
      <trkpt lat="44.59832" lon="6.09892">
        <ele>1141.4</ele>
        <time>2023-04-14T07:51:42Z</time>
      </trkpt>
      <trkpt lat="44.5983" lon="6.09877">
        <ele>1141</ele>
        <time>2023-04-14T07:51:42Z</time>
      </trkpt>
      <trkpt lat="44.5983" lon="6.09866">
        <ele>1141.2</ele>
        <time>2023-04-14T07:51:42Z</time>
      </trkpt>
      <trkpt lat="44.59837" lon="6.09848">
        <ele>1141.7</ele>
        <time>2023-04-14T07:51:42Z</time>
      </trkpt>
      <trkpt lat="44.59881" lon="6.09776">
        <ele>1140.7</ele>
        <time>2023-04-14T07:51:42Z</time>
      </trkpt>
      <trkpt lat="44.59925" lon="6.09729">
        <ele>1141.7</ele>
        <time>2023-04-14T07:51:42Z</time>
      </trkpt>
      <trkpt lat="44.59939" lon="6.09723">
        <ele>1142.9</ele>
        <time>2023-04-14T07:51:42Z</time>
      </trkpt>
      <trkpt lat="44.59981" lon="6.09684">
        <ele>1139.9</ele>
        <time>2023-04-14T07:51:42Z</time>
      </trkpt>
      <trkpt lat="44.60024" lon="6.09659">
        <ele>1141.8</ele>
        <time>2023-04-14T07:51:42Z</time>
      </trkpt>
      <trkpt lat="44.60045" lon="6.09626">
        <ele>1137.9</ele>
        <time>2023-04-14T07:51:42Z</time>
      </trkpt>
      <trkpt lat="44.60052" lon="6.09619">
        <ele>1137.9</ele>
        <time>2023-04-14T07:51:42Z</time>
      </trkpt>
      <trkpt lat="44.60073" lon="6.09614">
        <ele>1139.4</ele>
        <time>2023-04-14T07:51:42Z</time>
      </trkpt>
      <trkpt lat="44.60083" lon="6.09614">
        <ele>1140.5</ele>
        <time>2023-04-14T07:51:42Z</time>
      </trkpt>
      <trkpt lat="44.60092" lon="6.09604">
        <ele>1140.5</ele>
        <time>2023-04-14T07:51:42Z</time>
      </trkpt>
      <trkpt lat="44.60097" lon="6.09592">
        <ele>1139.9</ele>
        <time>2023-04-14T07:51:42Z</time>
      </trkpt>
      <trkpt lat="44.60098" lon="6.09579">
        <ele>1139.1</ele>
        <time>2023-04-14T07:51:42Z</time>
      </trkpt>
      <trkpt lat="44.60098" lon="6.0957">
        <ele>1138.9</ele>
        <time>2023-04-14T07:51:42Z</time>
      </trkpt>
      <trkpt lat="44.60098" lon="6.0957">
        <ele>1138.9</ele>
        <time>2023-04-14T07:51:42Z</time>
      </trkpt>
      <trkpt lat="44.60085" lon="6.09537">
        <ele>1136.7</ele>
        <time>2023-04-14T07:51:42Z</time>
      </trkpt>
      <trkpt lat="44.60081" lon="6.09515">
        <ele>1137.9</ele>
        <time>2023-04-14T07:51:42Z</time>
      </trkpt>
      <trkpt lat="44.6008" lon="6.09501">
        <ele>1139.4</ele>
        <time>2023-04-14T07:51:42Z</time>
      </trkpt>
      <trkpt lat="44.60057" lon="6.0949">
        <ele>1138.5</ele>
        <time>2023-04-14T07:51:42Z</time>
      </trkpt>
      <trkpt lat="44.60025" lon="6.09496">
        <ele>1134.3</ele>
        <time>2023-04-14T07:51:42Z</time>
      </trkpt>
      <trkpt lat="44.60014" lon="6.09492">
        <ele>1134.5</ele>
        <time>2023-04-14T07:51:42Z</time>
      </trkpt>
      <trkpt lat="44.59978" lon="6.09453">
        <ele>1141.5</ele>
        <time>2023-04-14T07:51:42Z</time>
      </trkpt>
      <trkpt lat="44.59958" lon="6.0942">
        <ele>1142.8</ele>
        <time>2023-04-14T07:51:42Z</time>
      </trkpt>
      <trkpt lat="44.59944" lon="6.09391">
        <ele>1141.9</ele>
        <time>2023-04-14T07:51:42Z</time>
      </trkpt>
      <trkpt lat="44.59935" lon="6.09387">
        <ele>1142.6</ele>
        <time>2023-04-14T07:51:42Z</time>
      </trkpt>
      <trkpt lat="44.59848" lon="6.09393">
        <ele>1142.9</ele>
        <time>2023-04-14T07:51:42Z</time>
      </trkpt>
      <trkpt lat="44.59794" lon="6.09376">
        <ele>1140.6</ele>
        <time>2023-04-14T07:51:42Z</time>
      </trkpt>
      <trkpt lat="44.59764" lon="6.09307">
        <ele>1140.7</ele>
        <time>2023-04-14T07:51:42Z</time>
      </trkpt>
      <trkpt lat="44.59755" lon="6.09277">
        <ele>1140.7</ele>
        <time>2023-04-14T07:51:42Z</time>
      </trkpt>
      <trkpt lat="44.59741" lon="6.08954">
        <ele>1140.8</ele>
        <time>2023-04-14T07:51:42Z</time>
      </trkpt>
      <trkpt lat="44.59772" lon="6.08745">
        <ele>1143</ele>
        <time>2023-04-14T07:51:42Z</time>
      </trkpt>
      <trkpt lat="44.59801" lon="6.08625">
        <ele>1144.2</ele>
        <time>2023-04-14T07:51:42Z</time>
      </trkpt>
      <trkpt lat="44.59801" lon="6.08614">
        <ele>1144.1</ele>
        <time>2023-04-14T07:51:42Z</time>
      </trkpt>
      <trkpt lat="44.59795" lon="6.08573">
        <ele>1142.6</ele>
        <time>2023-04-14T07:51:42Z</time>
      </trkpt>
      <trkpt lat="44.59782" lon="6.08525">
        <ele>1141.2</ele>
        <time>2023-04-14T07:51:42Z</time>
      </trkpt>
      <trkpt lat="44.59782" lon="6.08432">
        <ele>1140.9</ele>
        <time>2023-04-14T07:51:42Z</time>
      </trkpt>
      <trkpt lat="44.59791" lon="6.08363">
        <ele>1141.9</ele>
        <time>2023-04-14T07:51:42Z</time>
      </trkpt>
      <trkpt lat="44.59797" lon="6.08347">
        <ele>1142.4</ele>
        <time>2023-04-14T07:51:42Z</time>
      </trkpt>
      <trkpt lat="44.59799" lon="6.08336">
        <ele>1142.3</ele>
        <time>2023-04-14T07:51:42Z</time>
      </trkpt>
      <trkpt lat="44.59798" lon="6.08265">
        <ele>1141.2</ele>
        <time>2023-04-14T07:51:42Z</time>
      </trkpt>
      <trkpt lat="44.59809" lon="6.08164">
        <ele>1140.2</ele>
        <time>2023-04-14T07:51:42Z</time>
      </trkpt>
      <trkpt lat="44.59815" lon="6.08149">
        <ele>1140.7</ele>
        <time>2023-04-14T07:51:42Z</time>
      </trkpt>
      <trkpt lat="44.59874" lon="6.08072">
        <ele>1141.5</ele>
        <time>2023-04-14T07:51:42Z</time>
      </trkpt>
      <trkpt lat="44.59881" lon="6.08055">
        <ele>1141.4</ele>
        <time>2023-04-14T07:51:42Z</time>
      </trkpt>
      <trkpt lat="44.59901" lon="6.07939">
        <ele>1139</ele>
        <time>2023-04-14T07:51:42Z</time>
      </trkpt>
      <trkpt lat="44.5996" lon="6.07891">
        <ele>1142.9</ele>
        <time>2023-04-14T07:51:42Z</time>
      </trkpt>
      <trkpt lat="44.59983" lon="6.07881">
        <ele>1146.7</ele>
        <time>2023-04-14T07:51:42Z</time>
      </trkpt>
      <trkpt lat="44.6003" lon="6.07826">
        <ele>1140.8</ele>
        <time>2023-04-14T07:51:42Z</time>
      </trkpt>
      <trkpt lat="44.60077" lon="6.07807">
        <ele>1143.7</ele>
        <time>2023-04-14T07:51:42Z</time>
      </trkpt>
      <trkpt lat="44.60082" lon="6.07798">
        <ele>1143</ele>
        <time>2023-04-14T07:51:42Z</time>
      </trkpt>
      <trkpt lat="44.60081" lon="6.07772">
        <ele>1141.8</ele>
        <time>2023-04-14T07:51:42Z</time>
      </trkpt>
      <trkpt lat="44.60073" lon="6.07758">
        <ele>1144.1</ele>
        <time>2023-04-14T07:51:42Z</time>
      </trkpt>
      <trkpt lat="44.60067" lon="6.07754">
        <ele>1144.5</ele>
        <time>2023-04-14T07:51:42Z</time>
      </trkpt>
      <trkpt lat="44.60067" lon="6.07754">
        <ele>1144.5</ele>
        <time>2023-04-14T07:51:42Z</time>
      </trkpt>
      <trkpt lat="44.60001" lon="6.07751">
        <ele>1144.8</ele>
        <time>2023-04-14T07:51:42Z</time>
      </trkpt>
      <trkpt lat="44.5999" lon="6.07753">
        <ele>1145.3</ele>
        <time>2023-04-14T07:51:42Z</time>
      </trkpt>
      <trkpt lat="44.59947" lon="6.0778">
        <ele>1140.5</ele>
        <time>2023-04-14T07:51:42Z</time>
      </trkpt>
      <trkpt lat="44.59917" lon="6.07783">
        <ele>1139.1</ele>
        <time>2023-04-14T07:51:42Z</time>
      </trkpt>
      <trkpt lat="44.59902" lon="6.07768">
        <ele>1140.5</ele>
        <time>2023-04-14T07:51:42Z</time>
      </trkpt>
      <trkpt lat="44.59859" lon="6.07691">
        <ele>1141.8</ele>
        <time>2023-04-14T07:51:42Z</time>
      </trkpt>
      <trkpt lat="44.59855" lon="6.07667">
        <ele>1142.1</ele>
        <time>2023-04-14T07:51:42Z</time>
      </trkpt>
      <trkpt lat="44.59854" lon="6.07642">
        <ele>1142</ele>
        <time>2023-04-14T07:51:42Z</time>
      </trkpt>
      <trkpt lat="44.5986" lon="6.07598">
        <ele>1143.8</ele>
        <time>2023-04-14T07:51:42Z</time>
      </trkpt>
      <trkpt lat="44.59859" lon="6.07582">
        <ele>1143.6</ele>
        <time>2023-04-14T07:51:42Z</time>
      </trkpt>
      <trkpt lat="44.59819" lon="6.07509">
        <ele>1141.1</ele>
        <time>2023-04-14T07:51:42Z</time>
      </trkpt>
      <trkpt lat="44.59816" lon="6.07495">
        <ele>1141.4</ele>
        <time>2023-04-14T07:51:42Z</time>
      </trkpt>
      <trkpt lat="44.59816" lon="6.07465">
        <ele>1142.3</ele>
        <time>2023-04-14T07:51:42Z</time>
      </trkpt>
      <trkpt lat="44.59821" lon="6.07422">
        <ele>1144.5</ele>
        <time>2023-04-14T07:51:42Z</time>
      </trkpt>
      <trkpt lat="44.59814" lon="6.07409">
        <ele>1144.6</ele>
        <time>2023-04-14T07:51:42Z</time>
      </trkpt>
      <trkpt lat="44.59796" lon="6.07406">
        <ele>1143.2</ele>
        <time>2023-04-14T07:51:42Z</time>
      </trkpt>
      <trkpt lat="44.59755" lon="6.07417">
        <ele>1140.9</ele>
        <time>2023-04-14T07:51:42Z</time>
      </trkpt>
      <trkpt lat="44.59746" lon="6.07413">
        <ele>1141.6</ele>
        <time>2023-04-14T07:51:42Z</time>
      </trkpt>
      <trkpt lat="44.59715" lon="6.07416">
        <ele>1140.6</ele>
        <time>2023-04-14T07:51:42Z</time>
      </trkpt>
      <trkpt lat="44.59655" lon="6.07398">
        <ele>1141.4</ele>
        <time>2023-04-14T07:51:42Z</time>
      </trkpt>
      <trkpt lat="44.59613" lon="6.07396">
        <ele>1139.2</ele>
        <time>2023-04-14T07:51:42Z</time>
      </trkpt>
      <trkpt lat="44.59578" lon="6.0738">
        <ele>1139.6</ele>
        <time>2023-04-14T07:51:42Z</time>
      </trkpt>
      <trkpt lat="44.5957" lon="6.07374">
        <ele>1140.1</ele>
        <time>2023-04-14T07:51:42Z</time>
      </trkpt>
      <trkpt lat="44.59551" lon="6.07348">
        <ele>1143.3</ele>
        <time>2023-04-14T07:51:42Z</time>
      </trkpt>
      <trkpt lat="44.5954" lon="6.07341">
        <ele>1143.5</ele>
        <time>2023-04-14T07:51:42Z</time>
      </trkpt>
      <trkpt lat="44.59422" lon="6.07304">
        <ele>1139.3</ele>
        <time>2023-04-14T07:51:42Z</time>
      </trkpt>
      <trkpt lat="44.59413" lon="6.07297">
        <ele>1138.5</ele>
        <time>2023-04-14T07:51:42Z</time>
      </trkpt>
      <trkpt lat="44.59403" lon="6.07281">
        <ele>1138.2</ele>
        <time>2023-04-14T07:51:42Z</time>
      </trkpt>
      <trkpt lat="44.59397" lon="6.07259">
        <ele>1139.6</ele>
        <time>2023-04-14T07:51:42Z</time>
      </trkpt>
      <trkpt lat="44.59378" lon="6.07223">
        <ele>1137.7</ele>
        <time>2023-04-14T07:51:42Z</time>
      </trkpt>
      <trkpt lat="44.59375" lon="6.07204">
        <ele>1138.6</ele>
        <time>2023-04-14T07:51:42Z</time>
      </trkpt>
      <trkpt lat="44.59376" lon="6.07191">
        <ele>1139.7</ele>
        <time>2023-04-14T07:51:42Z</time>
      </trkpt>
      <trkpt lat="44.59432" lon="6.07034">
        <ele>1140.1</ele>
        <time>2023-04-14T07:51:42Z</time>
      </trkpt>
      <trkpt lat="44.59441" lon="6.07023">
        <ele>1140.6</ele>
        <time>2023-04-14T07:51:42Z</time>
      </trkpt>
      <trkpt lat="44.59478" lon="6.06994">
        <ele>1147.9</ele>
        <time>2023-04-14T07:51:42Z</time>
      </trkpt>
      <trkpt lat="44.59482" lon="6.06984">
        <ele>1149</ele>
        <time>2023-04-14T07:51:42Z</time>
      </trkpt>
      <trkpt lat="44.59471" lon="6.06975">
        <ele>1145.8</ele>
        <time>2023-04-14T07:51:42Z</time>
      </trkpt>
      <trkpt lat="44.59439" lon="6.06966">
        <ele>1142.1</ele>
        <time>2023-04-14T07:51:42Z</time>
      </trkpt>
      <trkpt lat="44.59412" lon="6.06948">
        <ele>1144.2</ele>
        <time>2023-04-14T07:51:42Z</time>
      </trkpt>
      <trkpt lat="44.59395" lon="6.06946">
        <ele>1143.1</ele>
        <time>2023-04-14T07:51:42Z</time>
      </trkpt>
      <trkpt lat="44.59355" lon="6.06945">
        <ele>1139</ele>
        <time>2023-04-14T07:51:42Z</time>
      </trkpt>
      <trkpt lat="44.59328" lon="6.0693">
        <ele>1135.4</ele>
        <time>2023-04-14T07:51:42Z</time>
      </trkpt>
      <trkpt lat="44.59321" lon="6.06919">
        <ele>1133.9</ele>
        <time>2023-04-14T07:51:42Z</time>
      </trkpt>
      <trkpt lat="44.59334" lon="6.069">
        <ele>1137.6</ele>
        <time>2023-04-14T07:51:42Z</time>
      </trkpt>
      <trkpt lat="44.59363" lon="6.06874">
        <ele>1143.9</ele>
        <time>2023-04-14T07:51:42Z</time>
      </trkpt>
      <trkpt lat="44.59368" lon="6.06859">
        <ele>1144.8</ele>
        <time>2023-04-14T07:51:42Z</time>
      </trkpt>
      <trkpt lat="44.59313" lon="6.0683">
        <ele>1143.7</ele>
        <time>2023-04-14T07:51:42Z</time>
      </trkpt>
      <trkpt lat="44.59303" lon="6.06828">
        <ele>1143.8</ele>
        <time>2023-04-14T07:51:42Z</time>
      </trkpt>
      <trkpt lat="44.5922" lon="6.06847">
        <ele>1136.1</ele>
        <time>2023-04-14T07:51:42Z</time>
      </trkpt>
      <trkpt lat="44.59213" lon="6.06844">
        <ele>1135.5</ele>
        <time>2023-04-14T07:51:42Z</time>
      </trkpt>
      <trkpt lat="44.59205" lon="6.06829">
        <ele>1137.6</ele>
        <time>2023-04-14T07:51:42Z</time>
      </trkpt>
      <trkpt lat="44.59186" lon="6.06701">
        <ele>1142</ele>
        <time>2023-04-14T07:51:42Z</time>
      </trkpt>
      <trkpt lat="44.59188" lon="6.06579">
        <ele>1146.1</ele>
        <time>2023-04-14T07:51:42Z</time>
      </trkpt>
      <trkpt lat="44.5919" lon="6.0656">
        <ele>1147.3</ele>
        <time>2023-04-14T07:51:42Z</time>
      </trkpt>
      <trkpt lat="44.59188" lon="6.06541">
        <ele>1148.6</ele>
        <time>2023-04-14T07:51:42Z</time>
      </trkpt>
      <trkpt lat="44.59172" lon="6.06519">
        <ele>1147.6</ele>
        <time>2023-04-14T07:51:42Z</time>
      </trkpt>
      <trkpt lat="44.59161" lon="6.06477">
        <ele>1148.8</ele>
        <time>2023-04-14T07:51:42Z</time>
      </trkpt>
      <trkpt lat="44.59152" lon="6.06466">
        <ele>1148.2</ele>
        <time>2023-04-14T07:51:42Z</time>
      </trkpt>
      <trkpt lat="44.59145" lon="6.06463">
        <ele>1146.8</ele>
        <time>2023-04-14T07:51:42Z</time>
      </trkpt>
      <trkpt lat="44.59135" lon="6.06451">
        <ele>1146.8</ele>
        <time>2023-04-14T07:51:42Z</time>
      </trkpt>
      <trkpt lat="44.59099" lon="6.06447">
        <ele>1141.6</ele>
        <time>2023-04-14T07:51:42Z</time>
      </trkpt>
      <trkpt lat="44.59052" lon="6.06508">
        <ele>1135.9</ele>
        <time>2023-04-14T07:51:42Z</time>
      </trkpt>
      <trkpt lat="44.58994" lon="6.06541">
        <ele>1139</ele>
        <time>2023-04-14T07:51:42Z</time>
      </trkpt>
      <trkpt lat="44.58978" lon="6.06544">
        <ele>1138.7</ele>
        <time>2023-04-14T07:51:42Z</time>
      </trkpt>
      <trkpt lat="44.58964" lon="6.06537">
        <ele>1137.8</ele>
        <time>2023-04-14T07:51:42Z</time>
      </trkpt>
      <trkpt lat="44.58923" lon="6.06489">
        <ele>1136.1</ele>
        <time>2023-04-14T07:51:42Z</time>
      </trkpt>
      <trkpt lat="44.58912" lon="6.06461">
        <ele>1136.8</ele>
        <time>2023-04-14T07:51:42Z</time>
      </trkpt>
      <trkpt lat="44.58908" lon="6.06435">
        <ele>1138.4</ele>
        <time>2023-04-14T07:51:42Z</time>
      </trkpt>
      <trkpt lat="44.58904" lon="6.06424">
        <ele>1138.3</ele>
        <time>2023-04-14T07:51:42Z</time>
      </trkpt>
      <trkpt lat="44.58846" lon="6.06327">
        <ele>1139.2</ele>
        <time>2023-04-14T07:51:42Z</time>
      </trkpt>
      <trkpt lat="44.58839" lon="6.0628">
        <ele>1139.8</ele>
        <time>2023-04-14T07:51:42Z</time>
      </trkpt>
      <trkpt lat="44.58837" lon="6.06289">
        <ele>1139.5</ele>
        <time>2023-04-14T07:51:42Z</time>
      </trkpt>
      <trkpt lat="44.58836" lon="6.06303">
        <ele>1139.3</ele>
        <time>2023-04-14T07:51:42Z</time>
      </trkpt>
      <trkpt lat="44.58837" lon="6.06315">
        <ele>1138.6</ele>
        <time>2023-04-14T07:51:42Z</time>
      </trkpt>
      <trkpt lat="44.58842" lon="6.06332">
        <ele>1137.9</ele>
        <time>2023-04-14T07:51:42Z</time>
      </trkpt>
      <trkpt lat="44.58869" lon="6.06381">
        <ele>1135.4</ele>
        <time>2023-04-14T07:51:42Z</time>
      </trkpt>
      <trkpt lat="44.58869" lon="6.06381">
        <ele>1135.4</ele>
        <time>2023-04-14T07:51:42Z</time>
      </trkpt>
      <trkpt lat="44.58842" lon="6.06332">
        <ele>1137.9</ele>
        <time>2023-04-14T07:51:42Z</time>
      </trkpt>
      <trkpt lat="44.58837" lon="6.06315">
        <ele>1138.6</ele>
        <time>2023-04-14T07:51:42Z</time>
      </trkpt>
      <trkpt lat="44.58836" lon="6.06303">
        <ele>1139.3</ele>
        <time>2023-04-14T07:51:42Z</time>
      </trkpt>
      <trkpt lat="44.58839" lon="6.0628">
        <ele>1139.8</ele>
        <time>2023-04-14T07:51:42Z</time>
      </trkpt>
      <trkpt lat="44.58775" lon="6.06107">
        <ele>1140.1</ele>
        <time>2023-04-14T07:51:42Z</time>
      </trkpt>
      <trkpt lat="44.58769" lon="6.06095">
        <ele>1141</ele>
        <time>2023-04-14T07:51:42Z</time>
      </trkpt>
      <trkpt lat="44.58691" lon="6.06039">
        <ele>1136.1</ele>
        <time>2023-04-14T07:51:42Z</time>
      </trkpt>
      <trkpt lat="44.58685" lon="6.06029">
        <ele>1135.9</ele>
        <time>2023-04-14T07:51:42Z</time>
      </trkpt>
      <trkpt lat="44.5867" lon="6.05979">
        <ele>1139.8</ele>
        <time>2023-04-14T07:51:42Z</time>
      </trkpt>
      <trkpt lat="44.58659" lon="6.05959">
        <ele>1140.2</ele>
        <time>2023-04-14T07:51:42Z</time>
      </trkpt>
      <trkpt lat="44.58602" lon="6.05906">
        <ele>1138</ele>
        <time>2023-04-14T07:51:42Z</time>
      </trkpt>
      <trkpt lat="44.58594" lon="6.05887">
        <ele>1138.5</ele>
        <time>2023-04-14T07:51:42Z</time>
      </trkpt>
      <trkpt lat="44.58583" lon="6.05843">
        <ele>1138.5</ele>
        <time>2023-04-14T07:51:42Z</time>
      </trkpt>
      <trkpt lat="44.58563" lon="6.05802">
        <ele>1138.2</ele>
        <time>2023-04-14T07:51:42Z</time>
      </trkpt>
      <trkpt lat="44.58556" lon="6.05795">
        <ele>1138</ele>
        <time>2023-04-14T07:51:42Z</time>
      </trkpt>
      <trkpt lat="44.58529" lon="6.05805">
        <ele>1138</ele>
        <time>2023-04-14T07:51:42Z</time>
      </trkpt>
      <trkpt lat="44.58509" lon="6.05801">
        <ele>1137.4</ele>
        <time>2023-04-14T07:51:42Z</time>
      </trkpt>
      <trkpt lat="44.5848" lon="6.05771">
        <ele>1137</ele>
        <time>2023-04-14T07:51:42Z</time>
      </trkpt>
      <trkpt lat="44.5832" lon="6.05503">
        <ele>1136.8</ele>
        <time>2023-04-14T07:51:42Z</time>
      </trkpt>
      <trkpt lat="44.58283" lon="6.05413">
        <ele>1136.9</ele>
        <time>2023-04-14T07:51:42Z</time>
      </trkpt>
      <trkpt lat="44.58094" lon="6.05131">
        <ele>1138.6</ele>
        <time>2023-04-14T07:51:42Z</time>
      </trkpt>
      <trkpt lat="44.58065" lon="6.05106">
        <ele>1137</ele>
        <time>2023-04-14T07:51:42Z</time>
      </trkpt>
      <trkpt lat="44.58059" lon="6.05098">
        <ele>1136.7</ele>
        <time>2023-04-14T07:51:42Z</time>
      </trkpt>
      <trkpt lat="44.58047" lon="6.05073">
        <ele>1138.3</ele>
        <time>2023-04-14T07:51:42Z</time>
      </trkpt>
      <trkpt lat="44.58042" lon="6.05064">
        <ele>1139</ele>
        <time>2023-04-14T07:51:42Z</time>
      </trkpt>
      <trkpt lat="44.58025" lon="6.05053">
        <ele>1136.8</ele>
        <time>2023-04-14T07:51:42Z</time>
      </trkpt>
      <trkpt lat="44.58012" lon="6.05035">
        <ele>1137.5</ele>
        <time>2023-04-14T07:51:42Z</time>
      </trkpt>
      <trkpt lat="44.57986" lon="6.04982">
        <ele>1138.2</ele>
        <time>2023-04-14T07:51:42Z</time>
      </trkpt>
      <trkpt lat="44.57946" lon="6.04936">
        <ele>1136</ele>
        <time>2023-04-14T07:51:42Z</time>
      </trkpt>
      <trkpt lat="44.57907" lon="6.04838">
        <ele>1138.8</ele>
        <time>2023-04-14T07:51:42Z</time>
      </trkpt>
      <trkpt lat="44.57845" lon="6.04774">
        <ele>1138</ele>
        <time>2023-04-14T07:51:42Z</time>
      </trkpt>
      <trkpt lat="44.57839" lon="6.04761">
        <ele>1138.3</ele>
        <time>2023-04-14T07:51:42Z</time>
      </trkpt>
      <trkpt lat="44.57832" lon="6.0475">
        <ele>1137.9</ele>
        <time>2023-04-14T07:51:42Z</time>
      </trkpt>
      <trkpt lat="44.57815" lon="6.04749">
        <ele>1137.5</ele>
        <time>2023-04-14T07:51:42Z</time>
      </trkpt>
      <trkpt lat="44.57804" lon="6.0474">
        <ele>1137.1</ele>
        <time>2023-04-14T07:51:42Z</time>
      </trkpt>
      <trkpt lat="44.57793" lon="6.04704">
        <ele>1139.2</ele>
        <time>2023-04-14T07:51:42Z</time>
      </trkpt>
      <trkpt lat="44.5771" lon="6.04679">
        <ele>1135.7</ele>
        <time>2023-04-14T07:51:42Z</time>
      </trkpt>
      <trkpt lat="44.57702" lon="6.04667">
        <ele>1136.7</ele>
        <time>2023-04-14T07:51:42Z</time>
      </trkpt>
      <trkpt lat="44.57683" lon="6.046">
        <ele>1138.9</ele>
        <time>2023-04-14T07:51:42Z</time>
      </trkpt>
      <trkpt lat="44.57677" lon="6.0459">
        <ele>1139</ele>
        <time>2023-04-14T07:51:42Z</time>
      </trkpt>
      <trkpt lat="44.57633" lon="6.04557">
        <ele>1138.2</ele>
        <time>2023-04-14T07:51:42Z</time>
      </trkpt>
      <trkpt lat="44.57624" lon="6.04542">
        <ele>1139.5</ele>
        <time>2023-04-14T07:51:42Z</time>
      </trkpt>
      <trkpt lat="44.5761" lon="6.04529">
        <ele>1137.7</ele>
        <time>2023-04-14T07:51:42Z</time>
      </trkpt>
      <trkpt lat="44.5753" lon="6.0439">
        <ele>1138.3</ele>
        <time>2023-04-14T07:51:42Z</time>
      </trkpt>
      <trkpt lat="44.5752" lon="6.04356">
        <ele>1137.7</ele>
        <time>2023-04-14T07:51:42Z</time>
      </trkpt>
      <trkpt lat="44.57503" lon="6.04288">
        <ele>1138.1</ele>
        <time>2023-04-14T07:51:42Z</time>
      </trkpt>
      <trkpt lat="44.5749" lon="6.04252">
        <ele>1138.3</ele>
        <time>2023-04-14T07:51:42Z</time>
      </trkpt>
      <trkpt lat="44.57436" lon="6.04165">
        <ele>1137.8</ele>
        <time>2023-04-14T07:51:42Z</time>
      </trkpt>
      <trkpt lat="44.57369" lon="6.04005">
        <ele>1138.5</ele>
        <time>2023-04-14T07:51:42Z</time>
      </trkpt>
      <trkpt lat="44.57366" lon="6.03993">
        <ele>1138.8</ele>
        <time>2023-04-14T07:51:42Z</time>
      </trkpt>
      <trkpt lat="44.57339" lon="6.03948">
        <ele>1137.9</ele>
        <time>2023-04-14T07:51:42Z</time>
      </trkpt>
      <trkpt lat="44.57304" lon="6.03908">
        <ele>1137.9</ele>
        <time>2023-04-14T07:51:42Z</time>
      </trkpt>
      <trkpt lat="44.57288" lon="6.03883">
        <ele>1138.8</ele>
        <time>2023-04-14T07:51:42Z</time>
      </trkpt>
      <trkpt lat="44.57213" lon="6.03815">
        <ele>1136.4</ele>
        <time>2023-04-14T07:51:42Z</time>
      </trkpt>
      <trkpt lat="44.57213" lon="6.03815">
        <ele>1136.4</ele>
        <time>2023-04-14T07:51:42Z</time>
      </trkpt>
      <trkpt lat="44.57204" lon="6.03792">
        <ele>1136.7</ele>
        <time>2023-04-14T07:51:42Z</time>
      </trkpt>
      <trkpt lat="44.57204" lon="6.03782">
        <ele>1137.2</ele>
        <time>2023-04-14T07:51:42Z</time>
      </trkpt>
      <trkpt lat="44.57239" lon="6.03747">
        <ele>1140</ele>
        <time>2023-04-14T07:51:42Z</time>
      </trkpt>
      <trkpt lat="44.57258" lon="6.03719">
        <ele>1138.1</ele>
        <time>2023-04-14T07:51:42Z</time>
      </trkpt>
      <trkpt lat="44.57309" lon="6.03695">
        <ele>1143.5</ele>
        <time>2023-04-14T07:51:42Z</time>
      </trkpt>
      <trkpt lat="44.57307" lon="6.03681">
        <ele>1142.2</ele>
        <time>2023-04-14T07:51:42Z</time>
      </trkpt>
      <trkpt lat="44.57293" lon="6.03664">
        <ele>1138.7</ele>
        <time>2023-04-14T07:51:42Z</time>
      </trkpt>
      <trkpt lat="44.57276" lon="6.03632">
        <ele>1140.2</ele>
        <time>2023-04-14T07:51:42Z</time>
      </trkpt>
      <trkpt lat="44.57239" lon="6.03607">
        <ele>1139.4</ele>
        <time>2023-04-14T07:51:42Z</time>
      </trkpt>
      <trkpt lat="44.57234" lon="6.03599">
        <ele>1139.5</ele>
        <time>2023-04-14T07:51:42Z</time>
      </trkpt>
      <trkpt lat="44.57225" lon="6.03566">
        <ele>1138.9</ele>
        <time>2023-04-14T07:51:42Z</time>
      </trkpt>
      <trkpt lat="44.57224" lon="6.03554">
        <ele>1137.9</ele>
        <time>2023-04-14T07:51:42Z</time>
      </trkpt>
      <trkpt lat="44.57216" lon="6.03528">
        <ele>1137</ele>
        <time>2023-04-14T07:51:42Z</time>
      </trkpt>
      <trkpt lat="44.57209" lon="6.0352">
        <ele>1139.8</ele>
        <time>2023-04-14T07:51:42Z</time>
      </trkpt>
      <trkpt lat="44.57182" lon="6.03524">
        <ele>1140.4</ele>
        <time>2023-04-14T07:51:42Z</time>
      </trkpt>
      <trkpt lat="44.57174" lon="6.03528">
        <ele>1139.9</ele>
        <time>2023-04-14T07:51:42Z</time>
      </trkpt>
      <trkpt lat="44.57152" lon="6.03552">
        <ele>1137.1</ele>
        <time>2023-04-14T07:51:42Z</time>
      </trkpt>
      <trkpt lat="44.57125" lon="6.03562">
        <ele>1135.9</ele>
        <time>2023-04-14T07:51:42Z</time>
      </trkpt>
      <trkpt lat="44.57088" lon="6.03564">
        <ele>1136.3</ele>
        <time>2023-04-14T07:51:42Z</time>
      </trkpt>
      <trkpt lat="44.5708" lon="6.03561">
        <ele>1137</ele>
        <time>2023-04-14T07:51:42Z</time>
      </trkpt>
      <trkpt lat="44.57063" lon="6.03538">
        <ele>1140.8</ele>
        <time>2023-04-14T07:51:42Z</time>
      </trkpt>
      <trkpt lat="44.57022" lon="6.03454">
        <ele>1142</ele>
        <time>2023-04-14T07:51:42Z</time>
      </trkpt>
      <trkpt lat="44.56974" lon="6.03414">
        <ele>1139</ele>
        <time>2023-04-14T07:51:42Z</time>
      </trkpt>
      <trkpt lat="44.56947" lon="6.0337">
        <ele>1142.3</ele>
        <time>2023-04-14T07:51:42Z</time>
      </trkpt>
      <trkpt lat="44.56936" lon="6.03359">
        <ele>1142</ele>
        <time>2023-04-14T07:51:42Z</time>
      </trkpt>
      <trkpt lat="44.56912" lon="6.03347">
        <ele>1140.4</ele>
        <time>2023-04-14T07:51:42Z</time>
      </trkpt>
      <trkpt lat="44.56854" lon="6.0328">
        <ele>1138.5</ele>
        <time>2023-04-14T07:51:42Z</time>
      </trkpt>
      <trkpt lat="44.56847" lon="6.03265">
        <ele>1138.8</ele>
        <time>2023-04-14T07:51:42Z</time>
      </trkpt>
      <trkpt lat="44.56837" lon="6.0321">
        <ele>1142.9</ele>
        <time>2023-04-14T07:51:42Z</time>
      </trkpt>
      <trkpt lat="44.56769" lon="6.03134">
        <ele>1141.3</ele>
        <time>2023-04-14T07:51:42Z</time>
      </trkpt>
      <trkpt lat="44.56745" lon="6.03117">
        <ele>1140.1</ele>
        <time>2023-04-14T07:51:42Z</time>
      </trkpt>
      <trkpt lat="44.56686" lon="6.03042">
        <ele>1138.6</ele>
        <time>2023-04-14T07:51:42Z</time>
      </trkpt>
      <trkpt lat="44.56658" lon="6.03033">
        <ele>1134.9</ele>
        <time>2023-04-14T07:51:42Z</time>
      </trkpt>
      <trkpt lat="44.56651" lon="6.03021">
        <ele>1136.2</ele>
        <time>2023-04-14T07:51:42Z</time>
      </trkpt>
      <trkpt lat="44.56647" lon="6.03007">
        <ele>1138.7</ele>
        <time>2023-04-14T07:51:42Z</time>
      </trkpt>
      <trkpt lat="44.56638" lon="6.03004">
        <ele>1138.1</ele>
        <time>2023-04-14T07:51:42Z</time>
      </trkpt>
      <trkpt lat="44.5663" lon="6.03007">
        <ele>1135.8</ele>
        <time>2023-04-14T07:51:42Z</time>
      </trkpt>
      <trkpt lat="44.56622" lon="6.03005">
        <ele>1134.9</ele>
        <time>2023-04-14T07:51:42Z</time>
      </trkpt>
      <trkpt lat="44.56558" lon="6.02942">
        <ele>1136.1</ele>
        <time>2023-04-14T07:51:42Z</time>
      </trkpt>
      <trkpt lat="44.56554" lon="6.02932">
        <ele>1138</ele>
        <time>2023-04-14T07:51:42Z</time>
      </trkpt>
      <trkpt lat="44.56548" lon="6.0292">
        <ele>1139.6</ele>
        <time>2023-04-14T07:51:42Z</time>
      </trkpt>
      <trkpt lat="44.56531" lon="6.02918">
        <ele>1137.2</ele>
        <time>2023-04-14T07:51:42Z</time>
      </trkpt>
      <trkpt lat="44.56466" lon="6.02879">
        <ele>1136.2</ele>
        <time>2023-04-14T07:51:42Z</time>
      </trkpt>
      <trkpt lat="44.56407" lon="6.02812">
        <ele>1137.9</ele>
        <time>2023-04-14T07:51:42Z</time>
      </trkpt>
      <trkpt lat="44.56394" lon="6.02791">
        <ele>1139.6</ele>
        <time>2023-04-14T07:51:42Z</time>
      </trkpt>
      <trkpt lat="44.56383" lon="6.02786">
        <ele>1137.7</ele>
        <time>2023-04-14T07:51:42Z</time>
      </trkpt>
      <trkpt lat="44.56342" lon="6.0274">
        <ele>1136.6</ele>
        <time>2023-04-14T07:51:42Z</time>
      </trkpt>
      <trkpt lat="44.56323" lon="6.0271">
        <ele>1134.9</ele>
        <time>2023-04-14T07:51:42Z</time>
      </trkpt>
      <trkpt lat="44.56302" lon="6.02632">
        <ele>1140.7</ele>
        <time>2023-04-14T07:51:42Z</time>
      </trkpt>
      <trkpt lat="44.56297" lon="6.02623">
        <ele>1141.6</ele>
        <time>2023-04-14T07:51:42Z</time>
      </trkpt>
      <trkpt lat="44.56291" lon="6.02617">
        <ele>1141.7</ele>
        <time>2023-04-14T07:51:42Z</time>
      </trkpt>
      <trkpt lat="44.56272" lon="6.02615">
        <ele>1139.2</ele>
        <time>2023-04-14T07:51:42Z</time>
      </trkpt>
      <trkpt lat="44.56253" lon="6.02621">
        <ele>1135.5</ele>
        <time>2023-04-14T07:51:42Z</time>
      </trkpt>
      <trkpt lat="44.56238" lon="6.02618">
        <ele>1134</ele>
        <time>2023-04-14T07:51:42Z</time>
      </trkpt>
      <trkpt lat="44.56185" lon="6.0253">
        <ele>1136.7</ele>
        <time>2023-04-14T07:51:42Z</time>
      </trkpt>
      <trkpt lat="44.56138" lon="6.0242">
        <ele>1137.2</ele>
        <time>2023-04-14T07:51:42Z</time>
      </trkpt>
      <trkpt lat="44.56113" lon="6.02372">
        <ele>1137</ele>
        <time>2023-04-14T07:51:42Z</time>
      </trkpt>
      <trkpt lat="44.56016" lon="6.02093">
        <ele>1135.4</ele>
        <time>2023-04-14T07:51:42Z</time>
      </trkpt>
      <trkpt lat="44.55982" lon="6.01841">
        <ele>1135.2</ele>
        <time>2023-04-14T07:51:42Z</time>
      </trkpt>
      <trkpt lat="44.55986" lon="6.01794">
        <ele>1137.4</ele>
        <time>2023-04-14T07:51:42Z</time>
      </trkpt>
      <trkpt lat="44.55981" lon="6.01784">
        <ele>1136.7</ele>
        <time>2023-04-14T07:51:42Z</time>
      </trkpt>
      <trkpt lat="44.55973" lon="6.01776">
        <ele>1135.3</ele>
        <time>2023-04-14T07:51:42Z</time>
      </trkpt>
      <trkpt lat="44.5597" lon="6.01759">
        <ele>1134.6</ele>
        <time>2023-04-14T07:51:42Z</time>
      </trkpt>
      <trkpt lat="44.55976" lon="6.01627">
        <ele>1135.8</ele>
        <time>2023-04-14T07:51:42Z</time>
      </trkpt>
      <trkpt lat="44.55955" lon="6.01472">
        <ele>1136.2</ele>
        <time>2023-04-14T07:51:42Z</time>
      </trkpt>
      <trkpt lat="44.55931" lon="6.01386">
        <ele>1136.3</ele>
        <time>2023-04-14T07:51:42Z</time>
      </trkpt>
      <trkpt lat="44.55931" lon="6.01372">
        <ele>1137.2</ele>
        <time>2023-04-14T07:51:42Z</time>
      </trkpt>
      <trkpt lat="44.55926" lon="6.01363">
        <ele>1137.2</ele>
        <time>2023-04-14T07:51:42Z</time>
      </trkpt>
      <trkpt lat="44.55917" lon="6.01359">
        <ele>1136.1</ele>
        <time>2023-04-14T07:51:42Z</time>
      </trkpt>
      <trkpt lat="44.55904" lon="6.01339">
        <ele>1135.4</ele>
        <time>2023-04-14T07:51:42Z</time>
      </trkpt>
      <trkpt lat="44.55904" lon="6.01339">
        <ele>1135.4</ele>
        <time>2023-04-14T07:51:42Z</time>
      </trkpt>
      <trkpt lat="44.55899" lon="6.01331">
        <ele>1135.2</ele>
        <time>2023-04-14T07:51:42Z</time>
      </trkpt>
      <trkpt lat="44.55914" lon="6.01312">
        <ele>1138.2</ele>
        <time>2023-04-14T07:51:42Z</time>
      </trkpt>
      <trkpt lat="44.55905" lon="6.01201">
        <ele>1139.8</ele>
        <time>2023-04-14T07:51:42Z</time>
      </trkpt>
      <trkpt lat="44.55905" lon="6.01121">
        <ele>1141</ele>
        <time>2023-04-14T07:51:42Z</time>
      </trkpt>
      <trkpt lat="44.55896" lon="6.01076">
        <ele>1141</ele>
        <time>2023-04-14T07:51:42Z</time>
      </trkpt>
      <trkpt lat="44.55878" lon="6.01011">
        <ele>1140.5</ele>
        <time>2023-04-14T07:51:42Z</time>
      </trkpt>
      <trkpt lat="44.55806" lon="6.00686">
        <ele>1141.4</ele>
        <time>2023-04-14T07:51:42Z</time>
      </trkpt>
      <trkpt lat="44.55806" lon="6.00686">
        <ele>1141.4</ele>
        <time>2023-04-14T07:51:42Z</time>
      </trkpt>
      <trkpt lat="44.5581" lon="6.00677">
        <ele>1142.2</ele>
        <time>2023-04-14T07:51:42Z</time>
      </trkpt>
      <trkpt lat="44.55819" lon="6.00676">
        <ele>1143.2</ele>
        <time>2023-04-14T07:51:42Z</time>
      </trkpt>
      <trkpt lat="44.5583" lon="6.00679">
        <ele>1144.5</ele>
        <time>2023-04-14T07:51:42Z</time>
      </trkpt>
      <trkpt lat="44.55885" lon="6.00659">
        <ele>1150.6</ele>
        <time>2023-04-14T07:51:42Z</time>
      </trkpt>
      <trkpt lat="44.55952" lon="6.00628">
        <ele>1158.5</ele>
        <time>2023-04-14T07:51:42Z</time>
      </trkpt>
      <trkpt lat="44.55963" lon="6.00628">
        <ele>1160.1</ele>
        <time>2023-04-14T07:51:42Z</time>
      </trkpt>
      <trkpt lat="44.55974" lon="6.00636">
        <ele>1161.4</ele>
        <time>2023-04-14T07:51:42Z</time>
      </trkpt>
      <trkpt lat="44.55988" lon="6.00669">
        <ele>1163.2</ele>
        <time>2023-04-14T07:51:42Z</time>
      </trkpt>
      <trkpt lat="44.55988" lon="6.00651">
        <ele>1163.2</ele>
        <time>2023-04-14T07:51:42Z</time>
      </trkpt>
      <trkpt lat="44.5598" lon="6.00579">
        <ele>1163.3</ele>
        <time>2023-04-14T07:51:42Z</time>
      </trkpt>
      <trkpt lat="44.5598" lon="6.00579">
        <ele>1163.3</ele>
        <time>2023-04-14T07:51:42Z</time>
      </trkpt>
      <trkpt lat="44.55972" lon="6.00486">
        <ele>1162.9</ele>
        <time>2023-04-14T07:51:42Z</time>
      </trkpt>
      <trkpt lat="44.55971" lon="6.00404">
        <ele>1161.8</ele>
        <time>2023-04-14T07:51:42Z</time>
      </trkpt>
      <trkpt lat="44.5584" lon="5.99566">
        <ele>1140.6</ele>
        <time>2023-04-14T07:51:42Z</time>
      </trkpt>
      <trkpt lat="44.55834" lon="5.99562">
        <ele>1140.2</ele>
        <time>2023-04-14T07:51:42Z</time>
      </trkpt>
      <trkpt lat="44.55834" lon="5.99562">
        <ele>1140.2</ele>
        <time>2023-04-14T07:51:42Z</time>
      </trkpt>
      <trkpt lat="44.5584" lon="5.99566">
        <ele>1140.6</ele>
        <time>2023-04-14T07:51:42Z</time>
      </trkpt>
      <trkpt lat="44.55855" lon="5.99583">
        <ele>1141.8</ele>
        <time>2023-04-14T07:51:42Z</time>
      </trkpt>
      <trkpt lat="44.55876" lon="5.99591">
        <ele>1143.3</ele>
        <time>2023-04-14T07:51:42Z</time>
      </trkpt>
      <trkpt lat="44.55926" lon="5.99601">
        <ele>1147.3</ele>
        <time>2023-04-14T07:51:42Z</time>
      </trkpt>
      <trkpt lat="44.56034" lon="5.99671">
        <ele>1154.6</ele>
        <time>2023-04-14T07:51:42Z</time>
      </trkpt>
      <trkpt lat="44.56186" lon="5.99796">
        <ele>1161.1</ele>
        <time>2023-04-14T07:51:42Z</time>
      </trkpt>
      <trkpt lat="44.56289" lon="5.99832">
        <ele>1167</ele>
        <time>2023-04-14T07:51:42Z</time>
      </trkpt>
      <trkpt lat="44.56289" lon="5.99832">
        <ele>1167</ele>
        <time>2023-04-14T07:51:42Z</time>
      </trkpt>
      <trkpt lat="44.56294" lon="5.99841">
        <ele>1167.4</ele>
        <time>2023-04-14T07:51:42Z</time>
      </trkpt>
      <trkpt lat="44.56301" lon="5.9983">
        <ele>1166.9</ele>
        <time>2023-04-14T07:51:42Z</time>
      </trkpt>
      <trkpt lat="44.56304" lon="5.99821">
        <ele>1166.5</ele>
        <time>2023-04-14T07:51:42Z</time>
      </trkpt>
      <trkpt lat="44.56321" lon="5.99654">
        <ele>1162.1</ele>
        <time>2023-04-14T07:51:42Z</time>
      </trkpt>
      <trkpt lat="44.56317" lon="5.99607">
        <ele>1161.5</ele>
        <time>2023-04-14T07:51:42Z</time>
      </trkpt>
      <trkpt lat="44.56322" lon="5.99503">
        <ele>1161.6</ele>
        <time>2023-04-14T07:51:42Z</time>
      </trkpt>
      <trkpt lat="44.56388" lon="5.99324">
        <ele>1156.7</ele>
        <time>2023-04-14T07:51:42Z</time>
      </trkpt>
      <trkpt lat="44.56398" lon="5.99276">
        <ele>1155.7</ele>
        <time>2023-04-14T07:51:42Z</time>
      </trkpt>
      <trkpt lat="44.56442" lon="5.99166">
        <ele>1152</ele>
        <time>2023-04-14T07:51:42Z</time>
      </trkpt>
      <trkpt lat="44.56451" lon="5.99096">
        <ele>1151.6</ele>
        <time>2023-04-14T07:51:42Z</time>
      </trkpt>
      <trkpt lat="44.56457" lon="5.99085">
        <ele>1149.9</ele>
        <time>2023-04-14T07:51:42Z</time>
      </trkpt>
      <trkpt lat="44.56467" lon="5.99051">
        <ele>1147</ele>
        <time>2023-04-14T07:51:42Z</time>
      </trkpt>
      <trkpt lat="44.5648" lon="5.99031">
        <ele>1144</ele>
        <time>2023-04-14T07:51:42Z</time>
      </trkpt>
      <trkpt lat="44.56577" lon="5.98768">
        <ele>1124.4</ele>
        <time>2023-04-14T07:51:42Z</time>
      </trkpt>
      <trkpt lat="44.56577" lon="5.98768">
        <ele>1124.4</ele>
        <time>2023-04-14T07:51:42Z</time>
      </trkpt>
      <trkpt lat="44.56587" lon="5.98748">
        <ele>1123.6</ele>
        <time>2023-04-14T07:51:42Z</time>
      </trkpt>
      <trkpt lat="44.56596" lon="5.98744">
        <ele>1122.8</ele>
        <time>2023-04-14T07:51:42Z</time>
      </trkpt>
      <trkpt lat="44.56606" lon="5.98744">
        <ele>1121.8</ele>
        <time>2023-04-14T07:51:42Z</time>
      </trkpt>
      <trkpt lat="44.56649" lon="5.98769">
        <ele>1118.5</ele>
        <time>2023-04-14T07:51:42Z</time>
      </trkpt>
      <trkpt lat="44.56678" lon="5.98773">
        <ele>1117.7</ele>
        <time>2023-04-14T07:51:42Z</time>
      </trkpt>
      <trkpt lat="44.56829" lon="5.98756">
        <ele>1111.4</ele>
        <time>2023-04-14T07:51:42Z</time>
      </trkpt>
      <trkpt lat="44.56851" lon="5.98747">
        <ele>1110.2</ele>
        <time>2023-04-14T07:51:42Z</time>
      </trkpt>
      <trkpt lat="44.56868" lon="5.98748">
        <ele>1109</ele>
        <time>2023-04-14T07:51:42Z</time>
      </trkpt>
      <trkpt lat="44.56932" lon="5.9877">
        <ele>1102.2</ele>
        <time>2023-04-14T07:51:42Z</time>
      </trkpt>
      <trkpt lat="44.56973" lon="5.98795">
        <ele>1096.5</ele>
        <time>2023-04-14T07:51:42Z</time>
      </trkpt>
      <trkpt lat="44.56989" lon="5.98822">
        <ele>1096.3</ele>
        <time>2023-04-14T07:51:42Z</time>
      </trkpt>
      <trkpt lat="44.57004" lon="5.98833">
        <ele>1092.8</ele>
        <time>2023-04-14T07:51:42Z</time>
      </trkpt>
      <trkpt lat="44.57015" lon="5.98848">
        <ele>1091.1</ele>
        <time>2023-04-14T07:51:42Z</time>
      </trkpt>
      <trkpt lat="44.57029" lon="5.98883">
        <ele>1085.3</ele>
        <time>2023-04-14T07:51:42Z</time>
      </trkpt>
      <trkpt lat="44.57034" lon="5.98906">
        <ele>1080.7</ele>
        <time>2023-04-14T07:51:42Z</time>
      </trkpt>
      <trkpt lat="44.57061" lon="5.9895">
        <ele>1072</ele>
        <time>2023-04-14T07:51:42Z</time>
      </trkpt>
      <trkpt lat="44.57069" lon="5.98959">
        <ele>1070.7</ele>
        <time>2023-04-14T07:51:42Z</time>
      </trkpt>
      <trkpt lat="44.5708" lon="5.98963">
        <ele>1067.6</ele>
        <time>2023-04-14T07:51:42Z</time>
      </trkpt>
      <trkpt lat="44.57086" lon="5.98977">
        <ele>1066.6</ele>
        <time>2023-04-14T07:51:42Z</time>
      </trkpt>
      <trkpt lat="44.57091" lon="5.99009">
        <ele>1066.6</ele>
        <time>2023-04-14T07:51:42Z</time>
      </trkpt>
      <trkpt lat="44.5709" lon="5.99032">
        <ele>1067.3</ele>
        <time>2023-04-14T07:51:42Z</time>
      </trkpt>
      <trkpt lat="44.57091" lon="5.99046">
        <ele>1067.9</ele>
        <time>2023-04-14T07:51:42Z</time>
      </trkpt>
      <trkpt lat="44.57094" lon="5.99055">
        <ele>1068</ele>
        <time>2023-04-14T07:51:42Z</time>
      </trkpt>
      <trkpt lat="44.57107" lon="5.99053">
        <ele>1065.5</ele>
        <time>2023-04-14T07:51:42Z</time>
      </trkpt>
      <trkpt lat="44.57175" lon="5.99019">
        <ele>1052.4</ele>
        <time>2023-04-14T07:51:42Z</time>
      </trkpt>
      <trkpt lat="44.57239" lon="5.99018">
        <ele>1046.6</ele>
        <time>2023-04-14T07:51:42Z</time>
      </trkpt>
      <trkpt lat="44.57262" lon="5.99009">
        <ele>1041.7</ele>
        <time>2023-04-14T07:51:42Z</time>
      </trkpt>
      <trkpt lat="44.57273" lon="5.99008">
        <ele>1040.3</ele>
        <time>2023-04-14T07:51:42Z</time>
      </trkpt>
      <trkpt lat="44.57286" lon="5.99012">
        <ele>1039</ele>
        <time>2023-04-14T07:51:42Z</time>
      </trkpt>
      <trkpt lat="44.57295" lon="5.99018">
        <ele>1037.8</ele>
        <time>2023-04-14T07:51:42Z</time>
      </trkpt>
      <trkpt lat="44.57303" lon="5.99027">
        <ele>1036.7</ele>
        <time>2023-04-14T07:51:42Z</time>
      </trkpt>
      <trkpt lat="44.57306" lon="5.99038">
        <ele>1035.6</ele>
        <time>2023-04-14T07:51:42Z</time>
      </trkpt>
      <trkpt lat="44.57303" lon="5.99053">
        <ele>1036.3</ele>
        <time>2023-04-14T07:51:42Z</time>
      </trkpt>
      <trkpt lat="44.57304" lon="5.99075">
        <ele>1034.8</ele>
        <time>2023-04-14T07:51:42Z</time>
      </trkpt>
      <trkpt lat="44.57308" lon="5.99084">
        <ele>1033.5</ele>
        <time>2023-04-14T07:51:42Z</time>
      </trkpt>
      <trkpt lat="44.57317" lon="5.99096">
        <ele>1032.1</ele>
        <time>2023-04-14T07:51:42Z</time>
      </trkpt>
      <trkpt lat="44.57323" lon="5.99111">
        <ele>1032.8</ele>
        <time>2023-04-14T07:51:42Z</time>
      </trkpt>
      <trkpt lat="44.57332" lon="5.99117">
        <ele>1033.2</ele>
        <time>2023-04-14T07:51:42Z</time>
      </trkpt>
      <trkpt lat="44.57354" lon="5.99084">
        <ele>1027.8</ele>
        <time>2023-04-14T07:51:42Z</time>
      </trkpt>
      <trkpt lat="44.57366" lon="5.99056">
        <ele>1021</ele>
        <time>2023-04-14T07:51:42Z</time>
      </trkpt>
      <trkpt lat="44.57371" lon="5.99049">
        <ele>1019.9</ele>
        <time>2023-04-14T07:51:42Z</time>
      </trkpt>
      <trkpt lat="44.57391" lon="5.99043">
        <ele>1018</ele>
        <time>2023-04-14T07:51:42Z</time>
      </trkpt>
      <trkpt lat="44.57406" lon="5.99049">
        <ele>1017.1</ele>
        <time>2023-04-14T07:51:42Z</time>
      </trkpt>
      <trkpt lat="44.57426" lon="5.99062">
        <ele>1016</ele>
        <time>2023-04-14T07:51:42Z</time>
      </trkpt>
      <trkpt lat="44.5744" lon="5.99085">
        <ele>1015</ele>
        <time>2023-04-14T07:51:42Z</time>
      </trkpt>
      <trkpt lat="44.57448" lon="5.99081">
        <ele>1012.2</ele>
        <time>2023-04-14T07:51:42Z</time>
      </trkpt>
      <trkpt lat="44.57448" lon="5.99081">
        <ele>1012.2</ele>
        <time>2023-04-14T07:51:42Z</time>
      </trkpt>
      <trkpt lat="44.57458" lon="5.99079">
        <ele>1010.6</ele>
        <time>2023-04-14T07:51:42Z</time>
      </trkpt>
      <trkpt lat="44.57459" lon="5.99059">
        <ele>1008.2</ele>
        <time>2023-04-14T07:51:42Z</time>
      </trkpt>
      <trkpt lat="44.57454" lon="5.99046">
        <ele>1007.3</ele>
        <time>2023-04-14T07:51:42Z</time>
      </trkpt>
      <trkpt lat="44.5745" lon="5.98951">
        <ele>998.3</ele>
        <time>2023-04-14T07:51:42Z</time>
      </trkpt>
      <trkpt lat="44.57415" lon="5.98859">
        <ele>986.8</ele>
        <time>2023-04-14T07:51:42Z</time>
      </trkpt>
      <trkpt lat="44.5739" lon="5.98827">
        <ele>985.7</ele>
        <time>2023-04-14T07:51:42Z</time>
      </trkpt>
      <trkpt lat="44.5735" lon="5.98741">
        <ele>980.8</ele>
        <time>2023-04-14T07:51:42Z</time>
      </trkpt>
      <trkpt lat="44.57347" lon="5.98727">
        <ele>980.3</ele>
        <time>2023-04-14T07:51:42Z</time>
      </trkpt>
      <trkpt lat="44.57347" lon="5.98717">
        <ele>979.8</ele>
        <time>2023-04-14T07:51:42Z</time>
      </trkpt>
      <trkpt lat="44.57344" lon="5.98704">
        <ele>979.4</ele>
        <time>2023-04-14T07:51:42Z</time>
      </trkpt>
      <trkpt lat="44.57332" lon="5.98692">
        <ele>979</ele>
        <time>2023-04-14T07:51:42Z</time>
      </trkpt>
      <trkpt lat="44.57324" lon="5.98686">
        <ele>979.3</ele>
        <time>2023-04-14T07:51:42Z</time>
      </trkpt>
      <trkpt lat="44.57313" lon="5.98667">
        <ele>978.8</ele>
        <time>2023-04-14T07:51:42Z</time>
      </trkpt>
      <trkpt lat="44.57281" lon="5.9865">
        <ele>981.2</ele>
        <time>2023-04-14T07:51:42Z</time>
      </trkpt>
      <trkpt lat="44.57266" lon="5.98635">
        <ele>983.3</ele>
        <time>2023-04-14T07:51:42Z</time>
      </trkpt>
      <trkpt lat="44.57255" lon="5.98616">
        <ele>982.9</ele>
        <time>2023-04-14T07:51:42Z</time>
      </trkpt>
      <trkpt lat="44.57199" lon="5.98455">
        <ele>979.6</ele>
        <time>2023-04-14T07:51:42Z</time>
      </trkpt>
      <trkpt lat="44.57197" lon="5.98441">
        <ele>978.5</ele>
        <time>2023-04-14T07:51:42Z</time>
      </trkpt>
      <trkpt lat="44.57199" lon="5.98429">
        <ele>977.5</ele>
        <time>2023-04-14T07:51:42Z</time>
      </trkpt>
      <trkpt lat="44.57221" lon="5.98417">
        <ele>976</ele>
        <time>2023-04-14T07:51:42Z</time>
      </trkpt>
      <trkpt lat="44.57214" lon="5.98372">
        <ele>975.5</ele>
        <time>2023-04-14T07:51:42Z</time>
      </trkpt>
      <trkpt lat="44.57205" lon="5.98347">
        <ele>974.2</ele>
        <time>2023-04-14T07:51:42Z</time>
      </trkpt>
      <trkpt lat="44.57204" lon="5.98336">
        <ele>974</ele>
        <time>2023-04-14T07:51:42Z</time>
      </trkpt>
      <trkpt lat="44.57198" lon="5.98314">
        <ele>973.3</ele>
        <time>2023-04-14T07:51:42Z</time>
      </trkpt>
      <trkpt lat="44.57194" lon="5.98278">
        <ele>973</ele>
        <time>2023-04-14T07:51:42Z</time>
      </trkpt>
      <trkpt lat="44.57187" lon="5.98252">
        <ele>972.5</ele>
        <time>2023-04-14T07:51:42Z</time>
      </trkpt>
      <trkpt lat="44.57187" lon="5.98184">
        <ele>971.7</ele>
        <time>2023-04-14T07:51:42Z</time>
      </trkpt>
      <trkpt lat="44.57183" lon="5.98172">
        <ele>971.6</ele>
        <time>2023-04-14T07:51:42Z</time>
      </trkpt>
      <trkpt lat="44.5717" lon="5.98152">
        <ele>971.2</ele>
        <time>2023-04-14T07:51:42Z</time>
      </trkpt>
      <trkpt lat="44.57161" lon="5.98147">
        <ele>970.8</ele>
        <time>2023-04-14T07:51:42Z</time>
      </trkpt>
      <trkpt lat="44.5715" lon="5.98134">
        <ele>970.5</ele>
        <time>2023-04-14T07:51:42Z</time>
      </trkpt>
      <trkpt lat="44.57132" lon="5.98098">
        <ele>970.1</ele>
        <time>2023-04-14T07:51:42Z</time>
      </trkpt>
      <trkpt lat="44.57124" lon="5.98067">
        <ele>969.9</ele>
        <time>2023-04-14T07:51:42Z</time>
      </trkpt>
      <trkpt lat="44.57121" lon="5.98041">
        <ele>970.2</ele>
        <time>2023-04-14T07:51:42Z</time>
      </trkpt>
      <trkpt lat="44.57127" lon="5.98015">
        <ele>971.7</ele>
        <time>2023-04-14T07:51:42Z</time>
      </trkpt>
      <trkpt lat="44.57086" lon="5.97868">
        <ele>971.5</ele>
        <time>2023-04-14T07:51:42Z</time>
      </trkpt>
      <trkpt lat="44.57111" lon="5.97804">
        <ele>975</ele>
        <time>2023-04-14T07:51:42Z</time>
      </trkpt>
      <trkpt lat="44.57111" lon="5.97786">
        <ele>975.7</ele>
        <time>2023-04-14T07:51:42Z</time>
      </trkpt>
      <trkpt lat="44.57105" lon="5.97773">
        <ele>974.9</ele>
        <time>2023-04-14T07:51:42Z</time>
      </trkpt>
      <trkpt lat="44.57099" lon="5.97767">
        <ele>974.1</ele>
        <time>2023-04-14T07:51:42Z</time>
      </trkpt>
      <trkpt lat="44.57076" lon="5.97685">
        <ele>971.3</ele>
        <time>2023-04-14T07:51:42Z</time>
      </trkpt>
      <trkpt lat="44.57074" lon="5.97653">
        <ele>970.9</ele>
        <time>2023-04-14T07:51:42Z</time>
      </trkpt>
      <trkpt lat="44.57085" lon="5.97625">
        <ele>972.4</ele>
        <time>2023-04-14T07:51:42Z</time>
      </trkpt>
      <trkpt lat="44.57088" lon="5.97608">
        <ele>973.5</ele>
        <time>2023-04-14T07:51:42Z</time>
      </trkpt>
      <trkpt lat="44.57088" lon="5.97578">
        <ele>974.9</ele>
        <time>2023-04-14T07:51:42Z</time>
      </trkpt>
      <trkpt lat="44.57083" lon="5.97557">
        <ele>974.8</ele>
        <time>2023-04-14T07:51:42Z</time>
      </trkpt>
      <trkpt lat="44.57071" lon="5.9753">
        <ele>974.7</ele>
        <time>2023-04-14T07:51:42Z</time>
      </trkpt>
      <trkpt lat="44.57065" lon="5.9752">
        <ele>973.6</ele>
        <time>2023-04-14T07:51:42Z</time>
      </trkpt>
      <trkpt lat="44.57061" lon="5.97507">
        <ele>973.3</ele>
        <time>2023-04-14T07:51:42Z</time>
      </trkpt>
      <trkpt lat="44.57072" lon="5.97469">
        <ele>977.2</ele>
        <time>2023-04-14T07:51:42Z</time>
      </trkpt>
      <trkpt lat="44.57073" lon="5.97448">
        <ele>976.3</ele>
        <time>2023-04-14T07:51:42Z</time>
      </trkpt>
      <trkpt lat="44.57057" lon="5.97382">
        <ele>972.8</ele>
        <time>2023-04-14T07:51:42Z</time>
      </trkpt>
      <trkpt lat="44.57049" lon="5.97374">
        <ele>972</ele>
        <time>2023-04-14T07:51:42Z</time>
      </trkpt>
      <trkpt lat="44.57038" lon="5.97331">
        <ele>973</ele>
        <time>2023-04-14T07:51:42Z</time>
      </trkpt>
      <trkpt lat="44.57021" lon="5.97308">
        <ele>971.8</ele>
        <time>2023-04-14T07:51:42Z</time>
      </trkpt>
      <trkpt lat="44.56997" lon="5.9728">
        <ele>971.2</ele>
        <time>2023-04-14T07:51:42Z</time>
      </trkpt>
      <trkpt lat="44.56971" lon="5.97237">
        <ele>970.2</ele>
        <time>2023-04-14T07:51:42Z</time>
      </trkpt>
      <trkpt lat="44.56947" lon="5.97164">
        <ele>969.6</ele>
        <time>2023-04-14T07:51:42Z</time>
      </trkpt>
      <trkpt lat="44.56939" lon="5.97061">
        <ele>969.7</ele>
        <time>2023-04-14T07:51:42Z</time>
      </trkpt>
      <trkpt lat="44.56917" lon="5.97">
        <ele>969</ele>
        <time>2023-04-14T07:51:42Z</time>
      </trkpt>
      <trkpt lat="44.56889" lon="5.96952">
        <ele>970</ele>
        <time>2023-04-14T07:51:42Z</time>
      </trkpt>
      <trkpt lat="44.56874" lon="5.96914">
        <ele>970.3</ele>
        <time>2023-04-14T07:51:42Z</time>
      </trkpt>
      <trkpt lat="44.56771" lon="5.96773">
        <ele>973.7</ele>
        <time>2023-04-14T07:51:42Z</time>
      </trkpt>
      <trkpt lat="44.56635" lon="5.96653">
        <ele>971.3</ele>
        <time>2023-04-14T07:51:42Z</time>
      </trkpt>
      <trkpt lat="44.56592" lon="5.96555">
        <ele>969.2</ele>
        <time>2023-04-14T07:51:42Z</time>
      </trkpt>
      <trkpt lat="44.56566" lon="5.96462">
        <ele>964.1</ele>
        <time>2023-04-14T07:51:42Z</time>
      </trkpt>
      <trkpt lat="44.56559" lon="5.96411">
        <ele>963.5</ele>
        <time>2023-04-14T07:51:42Z</time>
      </trkpt>
      <trkpt lat="44.56526" lon="5.96343">
        <ele>960.9</ele>
        <time>2023-04-14T07:51:42Z</time>
      </trkpt>
      <trkpt lat="44.56467" lon="5.96237">
        <ele>952.1</ele>
        <time>2023-04-14T07:51:42Z</time>
      </trkpt>
      <trkpt lat="44.56455" lon="5.96212">
        <ele>951.5</ele>
        <time>2023-04-14T07:51:42Z</time>
      </trkpt>
      <trkpt lat="44.56448" lon="5.96203">
        <ele>950.3</ele>
        <time>2023-04-14T07:51:42Z</time>
      </trkpt>
      <trkpt lat="44.56424" lon="5.96186">
        <ele>945.8</ele>
        <time>2023-04-14T07:51:42Z</time>
      </trkpt>
      <trkpt lat="44.5641" lon="5.96162">
        <ele>944.5</ele>
        <time>2023-04-14T07:51:42Z</time>
      </trkpt>
      <trkpt lat="44.56396" lon="5.96123">
        <ele>943.4</ele>
        <time>2023-04-14T07:51:42Z</time>
      </trkpt>
      <trkpt lat="44.56393" lon="5.96069">
        <ele>943</ele>
        <time>2023-04-14T07:51:42Z</time>
      </trkpt>
      <trkpt lat="44.56393" lon="5.96069">
        <ele>943</ele>
        <time>2023-04-14T07:51:42Z</time>
      </trkpt>
      <trkpt lat="44.56392" lon="5.96052">
        <ele>942.7</ele>
        <time>2023-04-14T07:51:42Z</time>
      </trkpt>
      <trkpt lat="44.56401" lon="5.96049">
        <ele>944.6</ele>
        <time>2023-04-14T07:51:42Z</time>
      </trkpt>
      <trkpt lat="44.56407" lon="5.96041">
        <ele>945.5</ele>
        <time>2023-04-14T07:51:42Z</time>
      </trkpt>
      <trkpt lat="44.56414" lon="5.96039">
        <ele>947</ele>
        <time>2023-04-14T07:51:42Z</time>
      </trkpt>
      <trkpt lat="44.56421" lon="5.96013">
        <ele>948.2</ele>
        <time>2023-04-14T07:51:42Z</time>
      </trkpt>
      <trkpt lat="44.56436" lon="5.96011">
        <ele>953.8</ele>
        <time>2023-04-14T07:51:42Z</time>
      </trkpt>
      <trkpt lat="44.56455" lon="5.95945">
        <ele>954.4</ele>
        <time>2023-04-14T07:51:42Z</time>
      </trkpt>
      <trkpt lat="44.56462" lon="5.95939">
        <ele>957.2</ele>
        <time>2023-04-14T07:51:42Z</time>
      </trkpt>
      <trkpt lat="44.56485" lon="5.95864">
        <ele>952.7</ele>
        <time>2023-04-14T07:51:42Z</time>
      </trkpt>
      <trkpt lat="44.56506" lon="5.95837">
        <ele>948.9</ele>
        <time>2023-04-14T07:51:42Z</time>
      </trkpt>
      <trkpt lat="44.56506" lon="5.95837">
        <ele>948.9</ele>
        <time>2023-04-14T07:51:42Z</time>
      </trkpt>
      <trkpt lat="44.56508" lon="5.95825">
        <ele>947.5</ele>
        <time>2023-04-14T07:51:42Z</time>
      </trkpt>
      <trkpt lat="44.56505" lon="5.95803">
        <ele>945.7</ele>
        <time>2023-04-14T07:51:42Z</time>
      </trkpt>
      <trkpt lat="44.56512" lon="5.95804">
        <ele>946.4</ele>
        <time>2023-04-14T07:51:42Z</time>
      </trkpt>
      <trkpt lat="44.56578" lon="5.9594">
        <ele>961.9</ele>
        <time>2023-04-14T07:51:42Z</time>
      </trkpt>
      <trkpt lat="44.56587" lon="5.95948">
        <ele>962</ele>
        <time>2023-04-14T07:51:42Z</time>
      </trkpt>
      <trkpt lat="44.56609" lon="5.95991">
        <ele>967.2</ele>
        <time>2023-04-14T07:51:42Z</time>
      </trkpt>
      <trkpt lat="44.56619" lon="5.95997">
        <ele>968.6</ele>
        <time>2023-04-14T07:51:42Z</time>
      </trkpt>
      <trkpt lat="44.5663" lon="5.96008">
        <ele>971.1</ele>
        <time>2023-04-14T07:51:42Z</time>
      </trkpt>
      <trkpt lat="44.56646" lon="5.96013">
        <ele>975.9</ele>
        <time>2023-04-14T07:51:42Z</time>
      </trkpt>
      <trkpt lat="44.56651" lon="5.96022">
        <ele>977</ele>
        <time>2023-04-14T07:51:42Z</time>
      </trkpt>
      <trkpt lat="44.56684" lon="5.96045">
        <ele>985.4</ele>
        <time>2023-04-14T07:51:42Z</time>
      </trkpt>
      <trkpt lat="44.56741" lon="5.9605">
        <ele>1002.5</ele>
        <time>2023-04-14T07:51:42Z</time>
      </trkpt>
      <trkpt lat="44.5675" lon="5.96054">
        <ele>1004.2</ele>
        <time>2023-04-14T07:51:42Z</time>
      </trkpt>
      <trkpt lat="44.56804" lon="5.96109">
        <ele>1016.5</ele>
        <time>2023-04-14T07:51:42Z</time>
      </trkpt>
      <trkpt lat="44.56818" lon="5.96129">
        <ele>1019.8</ele>
        <time>2023-04-14T07:51:42Z</time>
      </trkpt>
      <trkpt lat="44.56829" lon="5.96139">
        <ele>1022.7</ele>
        <time>2023-04-14T07:51:42Z</time>
      </trkpt>
      <trkpt lat="44.56882" lon="5.96154">
        <ele>1034</ele>
        <time>2023-04-14T07:51:42Z</time>
      </trkpt>
      <trkpt lat="44.56919" lon="5.96161">
        <ele>1037</ele>
        <time>2023-04-14T07:51:42Z</time>
      </trkpt>
      <trkpt lat="44.5693" lon="5.96159">
        <ele>1038.9</ele>
        <time>2023-04-14T07:51:42Z</time>
      </trkpt>
      <trkpt lat="44.56948" lon="5.96157">
        <ele>1040.9</ele>
        <time>2023-04-14T07:51:42Z</time>
      </trkpt>
      <trkpt lat="44.56956" lon="5.96151">
        <ele>1043.3</ele>
        <time>2023-04-14T07:51:42Z</time>
      </trkpt>
      <trkpt lat="44.57017" lon="5.96139">
        <ele>1051.2</ele>
        <time>2023-04-14T07:51:42Z</time>
      </trkpt>
      <trkpt lat="44.57046" lon="5.96149">
        <ele>1051.2</ele>
        <time>2023-04-14T07:51:42Z</time>
      </trkpt>
      <trkpt lat="44.57056" lon="5.96156">
        <ele>1051.2</ele>
        <time>2023-04-14T07:51:42Z</time>
      </trkpt>
      <trkpt lat="44.57106" lon="5.9614">
        <ele>1056.5</ele>
        <time>2023-04-14T07:51:42Z</time>
      </trkpt>
      <trkpt lat="44.57133" lon="5.96127">
        <ele>1060.7</ele>
        <time>2023-04-14T07:51:42Z</time>
      </trkpt>
      <trkpt lat="44.57171" lon="5.96127">
        <ele>1068.4</ele>
        <time>2023-04-14T07:51:42Z</time>
      </trkpt>
      <trkpt lat="44.57191" lon="5.9614">
        <ele>1071.7</ele>
        <time>2023-04-14T07:51:42Z</time>
      </trkpt>
      <trkpt lat="44.57203" lon="5.96154">
        <ele>1072.2</ele>
        <time>2023-04-14T07:51:42Z</time>
      </trkpt>
      <trkpt lat="44.57203" lon="5.96154">
        <ele>1072.2</ele>
        <time>2023-04-14T07:51:42Z</time>
      </trkpt>
      <trkpt lat="44.57211" lon="5.96154">
        <ele>1074.8</ele>
        <time>2023-04-14T07:51:42Z</time>
      </trkpt>
      <trkpt lat="44.57165" lon="5.96051">
        <ele>1086.8</ele>
        <time>2023-04-14T07:51:42Z</time>
      </trkpt>
      <trkpt lat="44.57149" lon="5.96032">
        <ele>1088.6</ele>
        <time>2023-04-14T07:51:42Z</time>
      </trkpt>
      <trkpt lat="44.5713" lon="5.96018">
        <ele>1088</ele>
        <time>2023-04-14T07:51:42Z</time>
      </trkpt>
      <trkpt lat="44.57124" lon="5.96004">
        <ele>1088.9</ele>
        <time>2023-04-14T07:51:42Z</time>
      </trkpt>
      <trkpt lat="44.57128" lon="5.95991">
        <ele>1090.2</ele>
        <time>2023-04-14T07:51:42Z</time>
      </trkpt>
      <trkpt lat="44.57193" lon="5.95934">
        <ele>1103.5</ele>
        <time>2023-04-14T07:51:42Z</time>
      </trkpt>
      <trkpt lat="44.57218" lon="5.95922">
        <ele>1108.1</ele>
        <time>2023-04-14T07:51:42Z</time>
      </trkpt>
      <trkpt lat="44.57224" lon="5.95935">
        <ele>1109.3</ele>
        <time>2023-04-14T07:51:42Z</time>
      </trkpt>
    </trkseg>
  </trk>
</gpx>